Time,TemperatureF,DewpointF,PressureIn,WindDirection,WindDirectionDegrees,WindSpeedMPH,WindSpeedGustMPH,Humidity,HourlyPrecipIn,Conditions,Clouds,dailyrainin,SoftwareType,DateUTC
2013-02-28 00:00:00,31.3,16.2,29.83,WSW,248,2.0,10.0,53,0.00,,,0.22,meteohub,2013-02-28 05:00:00,
2013-02-28 00:01:00,31.3,16.2,29.83,WSW,248,2.0,10.0,53,0.00,,,0.22,meteohub,2013-02-28 05:01:00,
2013-02-28 00:03:00,31.3,16.2,29.83,WSW,248,5.0,10.0,53,0.00,,,0.22,meteohub,2013-02-28 05:03:00,
2013-02-28 00:05:00,31.3,16.2,29.83,WSW,248,3.0,10.0,53,0.00,,,0.00,meteohub,2013-02-28 05:05:00,
2013-02-28 00:06:00,31.3,16.2,29.82,WSW,248,2.0,10.0,53,0.00,,,0.00,meteohub,2013-02-28 05:06:00,
2013-02-28 00:09:00,31.3,16.2,29.82,WSW,248,4.0,10.0,53,0.00,,,0.00,meteohub,2013-02-28 05:09:00,
2013-02-28 00:11:00,31.3,16.2,29.82,WSW,248,1.0,10.0,53,0.00,,,0.00,meteohub,2013-02-28 05:11:00,
2013-02-28 00:12:00,31.3,16.2,29.82,WSW,248,2.0,10.0,53,0.00,,,0.00,meteohub,2013-02-28 05:12:00,
2013-02-28 00:14:00,31.3,16.2,29.82,WSW,248,3.0,10.0,53,0.00,,,0.00,meteohub,2013-02-28 05:14:00,
2013-02-28 00:16:00,31.1,16.0,29.82,WSW,248,8.0,10.0,53,0.00,,,0.00,meteohub,2013-02-28 05:16:00,
2013-02-28 00:17:00,31.1,16.0,29.82,WSW,248,8.0,10.0,53,0.00,,,0.00,meteohub,2013-02-28 05:17:00,
2013-02-28 00:18:00,31.1,16.0,29.82,WSW,248,6.0,10.0,53,0.00,,,0.00,meteohub,2013-02-28 05:18:00,
2013-02-28 00:19:00,31.1,16.0,29.83,WSW,248,2.0,10.0,53,0.00,,,0.00,meteohub,2013-02-28 05:19:00,
2013-02-28 00:22:00,31.1,16.0,29.83,WSW,248,8.0,8.0,53,0.00,,,0.00,meteohub,2013-02-28 05:22:00,
2013-02-28 00:23:00,31.1,16.0,29.83,WSW,248,6.0,8.0,53,0.00,,,0.00,meteohub,2013-02-28 05:23:00,
2013-02-28 00:24:00,31.1,16.0,29.83,WSW,248,4.0,8.0,53,0.00,,,0.00,meteohub,2013-02-28 05:24:00,
2013-02-28 00:25:00,31.1,16.0,29.83,WSW,248,6.0,8.0,53,0.00,,,0.00,meteohub,2013-02-28 05:25:00,
2013-02-28 00:27:00,31.1,16.0,29.83,WSW,248,6.0,9.0,53,0.00,,,0.00,meteohub,2013-02-28 05:27:00,
2013-02-28 00:28:00,31.1,16.0,29.83,WSW,248,5.0,9.0,53,0.00,,,0.00,meteohub,2013-02-28 05:28:00,
2013-02-28 00:29:00,31.1,16.0,29.83,WSW,248,3.0,9.0,53,0.00,,,0.00,meteohub,2013-02-28 05:29:00,
2013-02-28 00:31:00,30.9,15.8,29.83,WSW,248,3.0,9.0,53,0.00,,,0.00,meteohub,2013-02-28 05:31:00,
2013-02-28 00:32:00,30.9,15.8,29.83,WSW,248,3.0,9.0,53,0.00,,,0.00,meteohub,2013-02-28 05:32:00,
2013-02-28 00:34:00,30.9,15.8,29.82,WSW,248,9.0,9.0,53,0.00,,,0.00,meteohub,2013-02-28 05:34:00,
2013-02-28 00:36:00,30.9,15.8,29.83,WSW,248,7.0,9.0,53,0.00,,,0.00,meteohub,2013-02-28 05:36:00,
2013-02-28 00:37:00,30.9,15.8,29.82,WSW,248,6.0,9.0,53,0.00,,,0.00,meteohub,2013-02-28 05:37:00,
2013-02-28 00:39:00,30.9,15.8,29.82,WSW,248,8.0,9.0,53,0.00,,,0.00,meteohub,2013-02-28 05:39:00,
2013-02-28 00:42:00,30.7,15.6,29.82,WSW,248,6.0,12.0,53,0.00,,,0.00,meteohub,2013-02-28 05:42:00,
2013-02-28 00:43:00,30.7,15.6,29.82,WSW,248,2.0,12.0,53,0.00,,,0.00,meteohub,2013-02-28 05:43:00,
2013-02-28 00:45:00,30.7,15.6,29.82,WSW,248,8.0,12.0,53,0.00,,,0.00,meteohub,2013-02-28 05:45:00,
2013-02-28 00:47:00,30.7,15.6,29.83,WSW,248,7.0,12.0,53,0.00,,,0.00,meteohub,2013-02-28 05:47:00,
2013-02-28 00:48:00,30.7,15.6,29.82,WSW,248,4.0,12.0,53,0.00,,,0.00,meteohub,2013-02-28 05:48:00,
2013-02-28 00:50:00,30.6,15.4,29.82,WSW,248,6.0,12.0,53,0.00,,,0.00,meteohub,2013-02-28 05:50:00,
2013-02-28 00:52:00,30.6,15.4,29.82,WSW,248,2.0,12.0,53,0.00,,,0.00,meteohub,2013-02-28 05:52:00,
2013-02-28 00:54:00,30.6,15.4,29.82,WSW,248,4.0,12.0,53,0.00,,,0.00,meteohub,2013-02-28 05:54:00,
2013-02-28 00:55:00,30.6,15.4,29.82,WSW,248,3.0,12.0,53,0.00,,,0.00,meteohub,2013-02-28 05:55:00,
2013-02-28 00:58:00,30.6,15.4,29.82,WSW,248,8.0,8.0,53,0.00,,,0.00,meteohub,2013-02-28 05:58:00,
2013-02-28 01:00:00,30.6,15.4,29.82,WSW,248,4.0,8.0,53,0.00,,,0.00,meteohub,2013-02-28 06:00:00,
2013-02-28 01:01:00,30.6,15.4,29.82,WSW,248,2.0,8.0,53,0.00,,,0.00,meteohub,2013-02-28 06:01:00,
2013-02-28 01:04:00,30.6,15.4,29.82,WSW,248,3.0,8.0,53,0.00,,,0.00,meteohub,2013-02-28 06:04:00,
2013-02-28 01:05:00,30.6,15.4,29.82,WSW,248,8.0,8.0,53,0.00,,,0.00,meteohub,2013-02-28 06:05:00,
2013-02-28 01:06:00,30.6,15.4,29.82,WSW,248,5.0,8.0,53,0.00,,,0.00,meteohub,2013-02-28 06:06:00,
2013-02-28 01:09:00,30.6,15.4,29.82,WSW,248,4.0,8.0,53,0.00,,,0.00,meteohub,2013-02-28 06:09:00,
2013-02-28 01:11:00,30.6,15.4,29.82,WSW,248,2.0,8.0,53,0.00,,,0.00,meteohub,2013-02-28 06:11:00,
2013-02-28 01:12:00,30.6,15.4,29.82,WSW,248,5.0,8.0,53,0.00,,,0.00,meteohub,2013-02-28 06:12:00,
2013-02-28 01:15:00,30.6,15.4,29.83,WSW,248,3.0,8.0,53,0.00,,,0.00,meteohub,2013-02-28 06:15:00,
2013-02-28 01:17:00,30.6,15.1,29.82,WSW,248,3.0,8.0,52,0.00,,,0.00,meteohub,2013-02-28 06:17:00,
2013-02-28 01:18:00,30.6,15.1,29.82,WSW,248,5.0,8.0,52,0.00,,,0.00,meteohub,2013-02-28 06:18:00,
2013-02-28 01:20:00,30.6,15.1,29.82,WSW,248,5.0,8.0,52,0.00,,,0.00,meteohub,2013-02-28 06:20:00,
2013-02-28 01:22:00,30.6,15.1,29.82,WSW,248,6.0,8.0,52,0.00,,,0.00,meteohub,2013-02-28 06:22:00,
2013-02-28 01:23:00,30.6,15.1,29.83,WSW,248,8.0,8.0,52,0.00,,,0.00,meteohub,2013-02-28 06:23:00,
2013-02-28 01:25:00,30.4,14.9,29.82,WSW,248,5.0,8.0,52,0.00,,,0.00,meteohub,2013-02-28 06:25:00,
2013-02-28 01:28:00,30.4,14.9,29.82,WSW,248,9.0,9.0,52,0.00,,,0.00,meteohub,2013-02-28 06:28:00,
2013-02-28 01:29:00,30.4,14.9,29.82,WSW,248,4.0,8.0,52,0.00,,,0.00,meteohub,2013-02-28 06:29:00,
2013-02-28 01:31:00,30.4,14.9,29.82,WSW,248,2.0,9.0,52,0.00,,,0.00,meteohub,2013-02-28 06:31:00,
2013-02-28 01:33:00,30.4,14.9,29.82,WSW,248,6.0,9.0,52,0.00,,,0.00,meteohub,2013-02-28 06:33:00,
2013-02-28 01:34:00,30.4,14.9,29.82,WSW,248,6.0,9.0,52,0.00,,,0.00,meteohub,2013-02-28 06:34:00,
2013-02-28 01:37:00,30.4,14.9,29.82,WSW,248,4.0,9.0,52,0.00,,,0.00,meteohub,2013-02-28 06:37:00,
2013-02-28 01:38:00,30.4,14.9,29.82,WSW,248,5.0,9.0,52,0.00,,,0.00,meteohub,2013-02-28 06:38:00,
2013-02-28 01:40:00,30.4,14.9,29.83,WSW,248,4.0,9.0,52,0.00,,,0.00,meteohub,2013-02-28 06:40:00,
2013-02-28 01:43:00,30.4,14.9,29.82,WSW,248,3.0,9.0,52,0.00,,,0.00,meteohub,2013-02-28 06:43:00,
2013-02-28 01:44:00,30.4,14.9,29.82,WSW,248,4.0,9.0,52,0.00,,,0.00,meteohub,2013-02-28 06:44:00,
2013-02-28 01:45:00,30.4,14.9,29.82,WSW,248,3.0,9.0,52,0.00,,,0.00,meteohub,2013-02-28 06:45:00,
2013-02-28 01:49:00,30.4,14.9,29.82,WSW,248,3.0,6.0,52,0.00,,,0.00,meteohub,2013-02-28 06:49:00,
2013-02-28 01:50:00,30.2,14.7,29.82,WSW,248,7.0,7.0,52,0.00,,,0.00,meteohub,2013-02-28 06:50:00,
2013-02-28 01:51:00,30.2,14.7,29.82,WSW,248,4.0,5.0,52,0.00,,,0.00,meteohub,2013-02-28 06:51:00,
2013-02-28 01:54:00,30.2,14.7,29.82,WSW,248,4.0,5.0,52,0.00,,,0.00,meteohub,2013-02-28 06:54:00,
2013-02-28 01:55:00,30.2,14.7,29.82,WSW,248,2.0,5.0,52,0.00,,,0.00,meteohub,2013-02-28 06:55:00,
2013-02-28 01:56:00,30.2,14.7,29.82,WSW,248,3.0,7.0,52,0.00,,,0.00,meteohub,2013-02-28 06:56:00,
2013-02-28 02:00:00,30.2,14.7,29.82,WSW,248,4.0,7.0,52,0.00,,,0.00,meteohub,2013-02-28 07:00:00,
2013-02-28 02:01:00,30.2,14.7,29.82,WSW,248,4.0,7.0,52,0.00,,,0.00,meteohub,2013-02-28 07:01:00,
2013-02-28 02:02:00,30.2,14.7,29.82,WSW,248,2.0,7.0,52,0.00,,,0.00,meteohub,2013-02-28 07:02:00,
2013-02-28 02:03:00,30.2,14.7,29.82,WSW,248,11.0,11.0,52,0.00,,,0.00,meteohub,2013-02-28 07:03:00,
2013-02-28 02:06:00,30.2,14.7,29.82,WSW,248,10.0,11.0,52,0.00,,,0.00,meteohub,2013-02-28 07:06:00,
2013-02-28 02:07:00,30.0,14.5,29.82,WSW,248,8.0,11.0,52,0.00,,,0.00,meteohub,2013-02-28 07:07:00,
2013-02-28 02:08:00,30.0,14.5,29.82,WSW,248,8.0,11.0,52,0.00,,,0.00,meteohub,2013-02-28 07:08:00,
2013-02-28 02:12:00,30.0,14.5,29.82,WSW,248,7.0,11.0,52,0.00,,,0.00,meteohub,2013-02-28 07:12:00,
2013-02-28 02:13:00,30.0,14.5,29.82,WSW,248,4.0,11.0,52,0.00,,,0.00,meteohub,2013-02-28 07:13:00,
2013-02-28 02:15:00,30.0,14.5,29.82,WSW,248,4.0,11.0,52,0.00,,,0.00,meteohub,2013-02-28 07:15:00,
2013-02-28 02:18:00,30.0,14.5,29.82,WSW,248,3.0,11.0,52,0.00,,,0.00,meteohub,2013-02-28 07:18:00,
2013-02-28 02:19:00,30.0,14.5,29.82,WSW,248,8.0,11.0,52,0.00,,,0.00,meteohub,2013-02-28 07:19:00,
2013-02-28 02:21:00,30.0,14.5,29.82,WSW,248,11.0,11.0,52,0.00,,,0.00,meteohub,2013-02-28 07:21:00,
2013-02-28 02:23:00,30.0,14.5,29.82,WSW,248,4.0,10.0,52,0.00,,,0.00,meteohub,2013-02-28 07:23:00,
2013-02-28 02:24:00,30.0,14.5,29.82,WSW,248,3.0,10.0,52,0.00,,,0.00,meteohub,2013-02-28 07:24:00,
2013-02-28 02:26:00,30.0,14.5,29.82,WSW,248,8.0,11.0,52,0.00,,,0.00,meteohub,2013-02-28 07:26:00,
2013-02-28 02:29:00,30.0,14.5,29.82,WSW,248,4.0,11.0,52,0.00,,,0.00,meteohub,2013-02-28 07:29:00,
2013-02-28 02:30:00,30.0,14.5,29.81,WSW,248,4.0,11.0,52,0.00,,,0.00,meteohub,2013-02-28 07:30:00,
2013-02-28 02:31:00,30.0,14.5,29.82,WSW,248,4.0,11.0,52,0.00,,,0.00,meteohub,2013-02-28 07:31:00,
2013-02-28 02:34:00,30.0,14.5,29.81,WSW,248,7.0,11.0,52,0.00,,,0.00,meteohub,2013-02-28 07:34:00,
2013-02-28 02:36:00,29.8,14.4,29.81,WSW,248,4.0,11.0,52,0.00,,,0.00,meteohub,2013-02-28 07:36:00,
2013-02-28 02:39:00,29.8,14.4,29.82,WSW,248,4.0,11.0,52,0.00,,,0.00,meteohub,2013-02-28 07:39:00,
2013-02-28 02:40:00,29.8,14.4,29.82,WSW,248,10.0,11.0,52,0.00,,,0.00,meteohub,2013-02-28 07:40:00,
2013-02-28 02:42:00,29.8,14.4,29.81,WSW,248,2.0,10.0,52,0.00,,,0.00,meteohub,2013-02-28 07:42:00,
2013-02-28 02:44:00,29.8,14.4,29.81,WSW,248,5.0,10.0,52,0.00,,,0.00,meteohub,2013-02-28 07:44:00,
2013-02-28 02:45:00,29.8,14.4,29.81,WSW,248,5.0,10.0,52,0.00,,,0.00,meteohub,2013-02-28 07:45:00,
2013-02-28 02:48:00,29.8,14.4,29.81,WSW,248,4.0,10.0,52,0.00,,,0.00,meteohub,2013-02-28 07:48:00,
2013-02-28 02:50:00,29.8,14.4,29.81,WSW,248,4.0,10.0,52,0.00,,,0.00,meteohub,2013-02-28 07:50:00,
2013-02-28 02:51:00,29.8,14.4,29.81,WSW,248,11.0,11.0,52,0.00,,,0.00,meteohub,2013-02-28 07:51:00,
2013-02-28 02:53:00,29.8,14.4,29.81,WSW,248,3.0,10.0,52,0.00,,,0.00,meteohub,2013-02-28 07:53:00,
2013-02-28 02:56:00,29.8,14.4,29.82,WSW,248,5.0,11.0,52,0.00,,,0.00,meteohub,2013-02-28 07:56:00,
2013-02-28 02:57:00,29.8,14.4,29.81,WSW,248,6.0,11.0,52,0.00,,,0.00,meteohub,2013-02-28 07:57:00,
2013-02-28 02:59:00,29.7,14.2,29.82,WSW,248,5.0,11.0,52,0.00,,,0.00,meteohub,2013-02-28 07:59:00,
2013-02-28 03:01:00,29.7,14.2,29.81,WSW,248,4.0,11.0,52,0.00,,,0.00,meteohub,2013-02-28 08:01:00,
2013-02-28 03:03:00,29.7,14.2,29.82,WSW,248,4.0,11.0,52,0.00,,,0.00,meteohub,2013-02-28 08:03:00,
2013-02-28 03:04:00,29.7,14.2,29.81,WSW,248,7.0,11.0,52,0.00,,,0.00,meteohub,2013-02-28 08:04:00,
2013-02-28 03:05:00,29.7,14.2,29.81,WSW,248,7.0,11.0,52,0.00,,,0.00,meteohub,2013-02-28 08:05:00,
2013-02-28 03:07:00,29.7,14.2,29.81,WSW,248,6.0,11.0,52,0.00,,,0.00,meteohub,2013-02-28 08:07:00,
2013-02-28 03:08:00,29.7,14.2,29.81,WSW,248,4.0,11.0,52,0.00,,,0.00,meteohub,2013-02-28 08:08:00,
2013-02-28 03:10:00,29.7,14.2,29.81,WSW,248,6.0,11.0,52,0.00,,,0.00,meteohub,2013-02-28 08:10:00,
2013-02-28 03:12:00,29.7,14.2,29.81,WSW,248,4.0,8.0,52,0.00,,,0.00,meteohub,2013-02-28 08:12:00,
2013-02-28 03:14:00,29.5,14.0,29.81,WSW,248,9.0,9.0,52,0.00,,,0.00,meteohub,2013-02-28 08:14:00,
2013-02-28 03:15:00,29.5,14.0,29.81,WSW,248,11.0,11.0,52,0.00,,,0.00,meteohub,2013-02-28 08:15:00,
2013-02-28 03:18:00,29.5,14.0,29.81,WSW,248,4.0,8.0,52,0.00,,,0.00,meteohub,2013-02-28 08:18:00,
2013-02-28 03:19:00,29.5,14.0,29.81,WSW,248,11.0,11.0,52,0.00,,,0.00,meteohub,2013-02-28 08:19:00,
2013-02-28 03:21:00,29.5,14.0,29.81,WSW,248,7.0,11.0,52,0.00,,,0.00,meteohub,2013-02-28 08:21:00,
2013-02-28 03:24:00,29.3,13.8,29.81,WSW,248,8.0,11.0,52,0.00,,,0.00,meteohub,2013-02-28 08:24:00,
2013-02-28 03:26:00,29.3,13.5,29.81,WSW,248,8.0,11.0,51,0.00,,,0.00,meteohub,2013-02-28 08:26:00,
2013-02-28 03:27:00,29.3,13.5,29.81,WSW,248,12.0,12.0,51,0.00,,,0.00,meteohub,2013-02-28 08:27:00,
2013-02-28 03:31:00,29.3,13.5,29.81,WSW,248,11.0,12.0,51,0.00,,,0.00,meteohub,2013-02-28 08:31:00,
2013-02-28 03:32:00,29.3,13.5,29.81,WSW,248,6.0,12.0,51,0.00,,,0.00,meteohub,2013-02-28 08:32:00,
2013-02-28 03:36:00,29.1,13.3,29.80,WSW,248,4.0,12.0,51,0.00,,,0.00,meteohub,2013-02-28 08:36:00,
2013-02-28 03:37:00,29.1,13.3,29.81,WSW,248,4.0,12.0,51,0.00,,,0.00,meteohub,2013-02-28 08:37:00,
2013-02-28 03:38:00,29.3,13.5,29.80,WSW,248,8.0,12.0,51,0.00,,,0.00,meteohub,2013-02-28 08:38:00,
2013-02-28 03:41:00,29.1,13.3,29.80,WSW,248,6.0,12.0,51,0.00,,,0.00,meteohub,2013-02-28 08:41:00,
2013-02-28 03:43:00,29.1,13.3,29.80,WSW,248,9.0,12.0,51,0.00,,,0.00,meteohub,2013-02-28 08:43:00,
2013-02-28 03:44:00,29.1,13.3,29.80,WSW,248,3.0,12.0,51,0.00,,,0.00,meteohub,2013-02-28 08:44:00,
2013-02-28 03:47:00,29.1,13.3,29.80,WSW,248,4.0,11.0,51,0.00,,,0.00,meteohub,2013-02-28 08:47:00,
2013-02-28 03:48:00,29.1,13.3,29.81,WSW,248,7.0,11.0,51,0.00,,,0.00,meteohub,2013-02-28 08:48:00,
2013-02-28 03:49:00,29.1,13.3,29.81,WSW,248,8.0,11.0,51,0.00,,,0.00,meteohub,2013-02-28 08:49:00,
2013-02-28 03:52:00,29.1,12.7,29.80,WSW,248,5.0,9.0,50,0.00,,,0.00,meteohub,2013-02-28 08:52:00,
2013-02-28 03:53:00,29.1,13.3,29.80,WSW,248,3.0,9.0,51,0.00,,,0.00,meteohub,2013-02-28 08:53:00,
2013-02-28 03:54:00,29.1,13.3,29.80,WSW,248,3.0,9.0,51,0.00,,,0.00,meteohub,2013-02-28 08:54:00,
2013-02-28 03:57:00,29.3,12.9,29.80,WSW,248,3.0,9.0,50,0.00,,,0.00,meteohub,2013-02-28 08:57:00,
2013-02-28 03:59:00,29.1,12.7,29.81,WSW,248,8.0,9.0,50,0.00,,,0.00,meteohub,2013-02-28 08:59:00,
2013-02-28 04:02:00,29.1,12.7,29.80,WSW,248,10.0,10.0,50,0.00,,,0.00,meteohub,2013-02-28 09:02:00,
2013-02-28 04:04:00,29.1,12.7,29.81,WSW,248,4.0,9.0,50,0.00,,,0.00,meteohub,2013-02-28 09:04:00,
2013-02-28 04:05:00,30.2,13.8,29.80,WSW,248,2.0,9.0,50,0.00,,,0.00,meteohub,2013-02-28 09:05:00,
2013-02-28 04:09:00,29.1,12.7,29.80,WSW,248,4.0,10.0,50,0.00,,,0.00,meteohub,2013-02-28 09:09:00,
2013-02-28 04:10:00,29.1,12.7,29.80,WSW,248,7.0,10.0,50,0.00,,,0.00,meteohub,2013-02-28 09:10:00,
2013-02-28 04:13:00,29.1,12.7,29.81,WSW,248,5.0,10.0,50,0.00,,,0.00,meteohub,2013-02-28 09:13:00,
2013-02-28 04:15:00,29.1,12.7,29.81,WSW,248,5.0,10.0,50,0.00,,,0.00,meteohub,2013-02-28 09:15:00,
2013-02-28 04:18:00,29.1,12.7,29.81,WSW,248,11.0,11.0,50,0.00,,,0.00,meteohub,2013-02-28 09:18:00,
2013-02-28 04:20:00,29.1,12.7,29.80,WSW,248,5.0,10.0,50,0.00,,,0.00,meteohub,2013-02-28 09:20:00,
2013-02-28 04:21:00,29.1,12.7,29.81,WSW,248,3.0,8.0,50,0.00,,,0.00,meteohub,2013-02-28 09:21:00,
2013-02-28 04:23:00,29.1,12.4,29.81,WSW,248,4.0,8.0,49,0.00,,,0.00,meteohub,2013-02-28 09:23:00,
2013-02-28 04:25:00,29.1,12.4,29.81,WSW,248,4.0,14.0,49,0.00,,,0.00,meteohub,2013-02-28 09:25:00,
2013-02-28 04:27:00,29.1,12.4,29.81,WSW,248,11.0,14.0,49,0.00,,,0.00,meteohub,2013-02-28 09:27:00,
2013-02-28 04:29:00,29.1,12.4,29.81,WSW,248,8.0,14.0,49,0.00,,,0.00,meteohub,2013-02-28 09:29:00,
2013-02-28 04:31:00,29.1,12.4,29.80,WSW,248,4.0,14.0,49,0.00,,,0.00,meteohub,2013-02-28 09:31:00,
2013-02-28 04:32:00,29.1,12.4,29.81,WSW,248,4.0,14.0,49,0.00,,,0.00,meteohub,2013-02-28 09:32:00,
2013-02-28 04:34:00,29.1,12.4,29.80,WSW,248,4.0,14.0,49,0.00,,,0.00,meteohub,2013-02-28 09:34:00,
2013-02-28 04:36:00,29.1,12.4,29.81,WSW,248,3.0,14.0,49,0.00,,,0.00,meteohub,2013-02-28 09:36:00,
2013-02-28 04:38:00,29.1,12.4,29.81,WSW,248,4.0,14.0,49,0.00,,,0.00,meteohub,2013-02-28 09:38:00,
2013-02-28 04:40:00,29.1,12.4,29.80,WSW,248,2.0,14.0,49,0.00,,,0.00,meteohub,2013-02-28 09:40:00,
2013-02-28 04:41:00,29.1,12.4,29.80,WSW,248,2.0,11.0,49,0.00,,,0.00,meteohub,2013-02-28 09:41:00,
2013-02-28 04:42:00,29.1,12.4,29.81,WSW,248,11.0,11.0,49,0.00,,,0.00,meteohub,2013-02-28 09:42:00,
2013-02-28 04:43:00,29.1,12.4,29.81,WSW,248,4.0,11.0,49,0.00,,,0.00,meteohub,2013-02-28 09:43:00,
2013-02-28 04:46:00,29.1,12.4,29.81,WSW,248,5.0,11.0,49,0.00,,,0.00,meteohub,2013-02-28 09:46:00,
2013-02-28 04:47:00,29.1,12.4,29.81,WSW,248,4.0,11.0,49,0.00,,,0.00,meteohub,2013-02-28 09:47:00,
2013-02-28 04:48:00,29.1,12.4,29.81,WSW,248,6.0,11.0,49,0.00,,,0.00,meteohub,2013-02-28 09:48:00,
2013-02-28 04:49:00,29.1,12.4,29.81,WSW,248,9.0,11.0,49,0.00,,,0.00,meteohub,2013-02-28 09:49:00,
2013-02-28 04:52:00,29.1,12.4,29.81,WSW,248,5.0,11.0,49,0.00,,,0.00,meteohub,2013-02-28 09:52:00,
2013-02-28 04:54:00,29.1,12.4,29.81,WSW,248,5.0,11.0,49,0.00,,,0.00,meteohub,2013-02-28 09:54:00,
2013-02-28 04:57:00,29.1,12.4,29.80,WSW,248,6.0,11.0,49,0.00,,,0.00,meteohub,2013-02-28 09:57:00,
2013-02-28 04:59:00,29.1,12.4,29.80,WSW,248,5.0,11.0,49,0.00,,,0.00,meteohub,2013-02-28 09:59:00,
2013-02-28 05:02:00,29.1,11.8,29.80,WSW,248,8.0,9.0,48,0.00,,,0.00,meteohub,2013-02-28 10:02:00,
2013-02-28 05:03:00,29.1,11.8,29.80,WSW,248,8.0,9.0,48,0.00,,,0.00,meteohub,2013-02-28 10:03:00,
2013-02-28 05:04:00,29.1,11.8,29.81,WSW,248,2.0,9.0,48,0.00,,,0.00,meteohub,2013-02-28 10:04:00,
2013-02-28 05:05:00,29.1,12.4,29.81,WSW,248,4.0,9.0,49,0.00,,,0.00,meteohub,2013-02-28 10:05:00,
2013-02-28 05:08:00,29.1,11.8,29.81,WSW,248,4.0,8.0,48,0.00,,,0.00,meteohub,2013-02-28 10:08:00,
2013-02-28 05:09:00,29.1,11.8,29.80,WSW,248,5.0,8.0,48,0.00,,,0.00,meteohub,2013-02-28 10:09:00,
2013-02-28 05:11:00,29.1,11.8,29.81,WSW,248,4.0,8.0,48,0.00,,,0.00,meteohub,2013-02-28 10:11:00,
2013-02-28 05:14:00,29.1,11.8,29.81,WSW,248,6.0,14.0,48,0.00,,,0.00,meteohub,2013-02-28 10:14:00,
2013-02-28 05:15:00,29.1,11.8,29.81,WSW,248,4.0,14.0,48,0.00,,,0.00,meteohub,2013-02-28 10:15:00,
2013-02-28 05:17:00,29.1,11.8,29.81,WSW,248,4.0,14.0,48,0.00,,,0.00,meteohub,2013-02-28 10:17:00,
2013-02-28 05:19:00,29.1,11.8,29.81,WSW,248,3.0,14.0,48,0.00,,,0.00,meteohub,2013-02-28 10:19:00,
2013-02-28 05:20:00,29.1,11.8,29.81,WSW,248,2.0,14.0,48,0.00,,,0.00,meteohub,2013-02-28 10:20:00,
2013-02-28 05:24:00,29.1,11.8,29.81,WSW,248,4.0,14.0,48,0.00,,,0.00,meteohub,2013-02-28 10:24:00,
2013-02-28 05:25:00,29.1,11.8,29.80,WSW,248,3.0,14.0,48,0.00,,,0.00,meteohub,2013-02-28 10:25:00,
2013-02-28 05:26:00,29.1,11.8,29.81,WSW,248,9.0,14.0,48,0.00,,,0.00,meteohub,2013-02-28 10:26:00,
2013-02-28 05:29:00,29.1,11.5,29.80,WSW,248,4.0,9.0,47,0.00,,,0.00,meteohub,2013-02-28 10:29:00,
2013-02-28 05:30:00,29.1,11.5,29.80,WSW,248,4.0,9.0,47,0.00,,,0.00,meteohub,2013-02-28 10:30:00,
2013-02-28 05:31:00,29.1,11.5,29.80,WSW,248,4.0,9.0,47,0.00,,,0.00,meteohub,2013-02-28 10:31:00,
2013-02-28 05:35:00,29.1,11.5,29.81,WSW,248,4.0,10.0,47,0.00,,,0.00,meteohub,2013-02-28 10:35:00,
2013-02-28 05:36:00,29.1,11.5,29.81,WSW,248,3.0,10.0,47,0.00,,,0.00,meteohub,2013-02-28 10:36:00,
2013-02-28 05:40:00,29.1,10.9,29.80,WSW,248,4.0,10.0,46,0.00,,,0.00,meteohub,2013-02-28 10:40:00,
2013-02-28 05:41:00,29.1,10.9,29.80,WSW,248,4.0,10.0,46,0.00,,,0.00,meteohub,2013-02-28 10:41:00,
2013-02-28 05:42:00,29.1,10.9,29.81,WSW,248,5.0,9.0,46,0.00,,,0.00,meteohub,2013-02-28 10:42:00,
2013-02-28 05:45:00,29.1,10.9,29.81,WSW,248,4.0,8.0,46,0.00,,,0.00,meteohub,2013-02-28 10:45:00,
2013-02-28 05:46:00,29.1,10.9,29.80,WSW,248,4.0,8.0,46,0.00,,,0.00,meteohub,2013-02-28 10:46:00,
2013-02-28 05:47:00,29.1,10.9,29.81,WSW,248,4.0,8.0,46,0.00,,,0.00,meteohub,2013-02-28 10:47:00,
2013-02-28 05:51:00,29.1,10.4,29.81,WSW,248,5.0,8.0,45,0.00,,,0.00,meteohub,2013-02-28 10:51:00,
2013-02-28 05:52:00,29.1,10.4,29.80,WSW,248,8.0,8.0,45,0.00,,,0.00,meteohub,2013-02-28 10:52:00,
2013-02-28 05:53:00,29.1,10.4,29.81,WSW,248,8.0,8.0,45,0.00,,,0.00,meteohub,2013-02-28 10:53:00,
2013-02-28 05:56:00,29.1,10.4,29.81,WSW,248,8.0,11.0,45,0.00,,,0.00,meteohub,2013-02-28 10:56:00,
2013-02-28 05:57:00,29.1,10.4,29.81,WSW,248,8.0,11.0,45,0.00,,,0.00,meteohub,2013-02-28 10:57:00,
2013-02-28 05:58:00,29.1,10.4,29.81,WSW,248,8.0,11.0,45,0.00,,,0.00,meteohub,2013-02-28 10:58:00,
2013-02-28 06:02:00,29.1,10.4,29.80,WSW,248,4.0,11.0,45,0.00,,,0.00,meteohub,2013-02-28 11:02:00,
2013-02-28 06:03:00,29.1,10.4,29.80,WSW,248,4.0,11.0,45,0.00,,,0.00,meteohub,2013-02-28 11:03:00,
2013-02-28 06:06:00,29.1,9.9,29.80,WSW,248,3.0,11.0,44,0.00,,,0.00,meteohub,2013-02-28 11:06:00,
2013-02-28 06:07:00,29.1,9.9,29.80,WSW,248,6.0,11.0,44,0.00,,,0.00,meteohub,2013-02-28 11:07:00,
2013-02-28 06:08:00,29.1,9.9,29.80,WSW,248,2.0,11.0,44,0.00,,,0.00,meteohub,2013-02-28 11:08:00,
2013-02-28 06:11:00,29.1,9.9,29.80,WSW,248,6.0,8.0,44,0.00,,,0.00,meteohub,2013-02-28 11:11:00,
2013-02-28 06:12:00,29.1,9.9,29.80,WSW,248,3.0,8.0,44,0.00,,,0.00,meteohub,2013-02-28 11:12:00,
2013-02-28 06:13:00,29.1,9.9,29.80,WSW,248,3.0,8.0,44,0.00,,,0.00,meteohub,2013-02-28 11:13:00,
2013-02-28 06:14:00,29.1,9.9,29.80,WSW,248,4.0,8.0,44,0.00,,,0.00,meteohub,2013-02-28 11:14:00,
2013-02-28 06:16:00,29.1,9.9,29.80,WSW,248,6.0,7.0,44,0.00,,,0.00,meteohub,2013-02-28 11:16:00,
2013-02-28 06:18:00,29.1,9.9,29.80,WSW,248,5.0,7.0,44,0.00,,,0.00,meteohub,2013-02-28 11:18:00,
2013-02-28 06:20:00,29.1,9.9,29.80,WSW,248,4.0,7.0,44,0.00,,,0.00,meteohub,2013-02-28 11:20:00,
2013-02-28 06:21:00,29.1,9.9,29.80,WSW,248,8.0,8.0,44,0.00,,,0.00,meteohub,2013-02-28 11:21:00,
2013-02-28 06:23:00,29.1,9.9,29.80,WSW,248,4.0,8.0,44,0.00,,,0.00,meteohub,2013-02-28 11:23:00,
2013-02-28 06:25:00,29.1,9.9,29.80,WSW,248,8.0,8.0,44,0.00,,,0.00,meteohub,2013-02-28 11:25:00,
2013-02-28 06:27:00,29.1,9.9,29.80,WSW,248,6.0,8.0,44,0.00,,,0.00,meteohub,2013-02-28 11:27:00,
2013-02-28 06:29:00,29.1,9.9,29.80,WSW,248,7.0,8.0,44,0.00,,,0.00,meteohub,2013-02-28 11:29:00,
2013-02-28 06:31:00,29.1,9.9,29.80,WSW,248,5.0,10.0,44,0.00,,,0.00,meteohub,2013-02-28 11:31:00,
2013-02-28 06:32:00,29.1,9.9,29.80,WSW,248,4.0,10.0,44,0.00,,,0.00,meteohub,2013-02-28 11:32:00,
2013-02-28 06:34:00,29.1,9.9,29.80,WSW,248,4.0,10.0,44,0.00,,,0.00,meteohub,2013-02-28 11:34:00,
2013-02-28 06:36:00,29.1,9.9,29.81,WSW,248,4.0,10.0,44,0.00,,,0.00,meteohub,2013-02-28 11:36:00,
2013-02-28 06:37:00,29.1,9.9,29.80,WSW,248,9.0,10.0,44,0.00,,,0.00,meteohub,2013-02-28 11:37:00,
2013-02-28 06:39:00,29.1,9.9,29.80,WSW,248,5.0,10.0,44,0.00,,,0.00,meteohub,2013-02-28 11:39:00,
2013-02-28 06:41:00,29.1,9.9,29.80,WSW,248,3.0,10.0,44,0.00,,,0.00,meteohub,2013-02-28 11:41:00,
2013-02-28 06:42:00,29.1,9.9,29.80,WSW,248,9.0,10.0,44,0.00,,,0.00,meteohub,2013-02-28 11:42:00,
2013-02-28 06:43:00,29.1,9.9,29.80,WSW,248,9.0,10.0,44,0.00,,,0.00,meteohub,2013-02-28 11:43:00,
2013-02-28 06:44:00,29.1,9.9,29.80,WSW,248,10.0,10.0,44,0.00,,,0.00,meteohub,2013-02-28 11:44:00,
2013-02-28 06:46:00,29.1,9.9,29.80,WSW,248,6.0,10.0,44,0.00,,,0.00,meteohub,2013-02-28 11:46:00,
2013-02-28 06:48:00,29.1,9.9,29.80,WSW,248,6.0,10.0,44,0.00,,,0.00,meteohub,2013-02-28 11:48:00,
2013-02-28 06:49:00,29.3,10.0,29.80,WSW,248,4.0,10.0,44,0.00,,,0.00,meteohub,2013-02-28 11:49:00,
2013-02-28 06:51:00,29.3,10.0,29.80,WSW,248,4.0,10.0,44,0.00,,,0.00,meteohub,2013-02-28 11:51:00,
2013-02-28 06:54:00,29.3,10.0,29.80,WSW,248,3.0,10.0,44,0.00,,,0.00,meteohub,2013-02-28 11:54:00,
2013-02-28 06:55:00,29.3,10.0,29.80,WSW,248,4.0,10.0,44,0.00,,,0.00,meteohub,2013-02-28 11:55:00,
2013-02-28 06:57:00,29.3,10.0,29.80,WSW,248,8.0,10.0,44,0.00,,,0.00,meteohub,2013-02-28 11:57:00,
2013-02-28 06:59:00,29.3,10.0,29.80,WSW,248,8.0,10.0,44,0.00,,,0.00,meteohub,2013-02-28 11:59:00,
2013-02-28 07:00:00,29.3,10.0,29.81,WSW,248,5.0,8.0,44,0.00,,,0.00,meteohub,2013-02-28 12:00:00,
2013-02-28 07:03:00,29.3,10.0,29.80,WSW,248,8.0,8.0,44,0.00,,,0.00,meteohub,2013-02-28 12:03:00,
2013-02-28 07:04:00,29.3,10.0,29.80,WSW,248,6.0,8.0,44,0.00,,,0.00,meteohub,2013-02-28 12:04:00,
2013-02-28 07:06:00,29.3,10.0,29.80,WSW,248,8.0,8.0,44,0.00,,,0.00,meteohub,2013-02-28 12:06:00,
2013-02-28 07:08:00,29.3,10.0,29.80,WSW,248,6.0,8.0,44,0.00,,,0.00,meteohub,2013-02-28 12:08:00,
2013-02-28 07:09:00,29.3,10.0,29.80,WSW,248,5.0,8.0,44,0.00,,,0.00,meteohub,2013-02-28 12:09:00,
2013-02-28 07:10:00,29.1,9.9,29.80,WSW,248,4.0,8.0,44,0.00,,,0.00,meteohub,2013-02-28 12:10:00,
2013-02-28 07:11:00,29.3,10.0,29.80,WSW,248,2.0,8.0,44,0.00,,,0.00,meteohub,2013-02-28 12:11:00,
2013-02-28 07:14:00,29.1,9.9,29.80,WSW,248,9.0,9.0,44,0.00,,,0.00,meteohub,2013-02-28 12:14:00,
2013-02-28 07:15:00,29.1,9.9,29.80,WSW,248,4.0,8.0,44,0.00,,,0.00,meteohub,2013-02-28 12:15:00,
2013-02-28 07:16:00,29.1,9.9,29.80,WSW,248,3.0,12.0,44,0.00,,,0.00,meteohub,2013-02-28 12:16:00,
2013-02-28 07:20:00,29.1,9.3,29.80,WSW,248,8.0,12.0,43,0.00,,,0.00,meteohub,2013-02-28 12:20:00,
2013-02-28 07:22:00,29.3,10.0,29.80,WSW,248,5.0,12.0,44,0.00,,,0.00,meteohub,2013-02-28 12:22:00,
2013-02-28 07:25:00,29.3,9.5,29.80,WSW,248,8.0,12.0,43,0.00,,,0.00,meteohub,2013-02-28 12:25:00,
2013-02-28 07:26:00,29.3,9.5,29.80,WSW,248,8.0,12.0,43,0.00,,,0.00,meteohub,2013-02-28 12:26:00,
2013-02-28 07:27:00,29.3,9.5,29.80,WSW,248,3.0,12.0,43,0.00,,,0.00,meteohub,2013-02-28 12:27:00,
2013-02-28 07:31:00,29.3,10.0,29.80,WSW,248,3.0,8.0,44,0.00,,,0.00,meteohub,2013-02-28 12:31:00,
2013-02-28 07:32:00,29.3,9.5,29.80,WSW,248,4.0,8.0,43,0.00,,,0.00,meteohub,2013-02-28 12:32:00,
2013-02-28 07:33:00,29.3,9.5,29.79,WSW,248,8.0,8.0,43,0.00,,,0.00,meteohub,2013-02-28 12:33:00,
2013-02-28 07:36:00,29.3,9.5,29.80,WSW,248,4.0,8.0,43,0.00,,,0.00,meteohub,2013-02-28 12:36:00,
2013-02-28 07:37:00,29.3,9.5,29.80,WSW,248,4.0,8.0,43,0.00,,,0.00,meteohub,2013-02-28 12:37:00,
2013-02-28 07:38:00,29.5,9.7,29.80,WSW,248,4.0,8.0,43,0.00,,,0.00,meteohub,2013-02-28 12:38:00,
2013-02-28 07:42:00,29.5,9.7,29.80,WSW,248,5.0,8.0,43,0.00,,,0.00,meteohub,2013-02-28 12:42:00,
2013-02-28 07:43:00,29.5,9.7,29.80,WSW,248,4.0,8.0,43,0.00,,,0.00,meteohub,2013-02-28 12:43:00,
2013-02-28 07:44:00,29.5,9.7,29.80,WSW,248,8.0,8.0,43,0.00,,,0.00,meteohub,2013-02-28 12:44:00,
2013-02-28 07:47:00,29.5,9.7,29.80,WSW,248,5.0,11.0,43,0.00,,,0.00,meteohub,2013-02-28 12:47:00,
2013-02-28 07:48:00,29.5,9.7,29.80,WSW,248,3.0,11.0,43,0.00,,,0.00,meteohub,2013-02-28 12:48:00,
2013-02-28 07:49:00,29.5,9.7,29.80,WSW,248,3.0,11.0,43,0.00,,,0.00,meteohub,2013-02-28 12:49:00,
2013-02-28 07:52:00,29.5,9.1,29.80,WSW,248,5.0,11.0,42,0.00,,,0.00,meteohub,2013-02-28 12:52:00,
2013-02-28 07:53:00,29.5,9.1,29.80,WSW,248,4.0,11.0,42,0.00,,,0.00,meteohub,2013-02-28 12:53:00,
2013-02-28 07:54:00,29.5,9.1,29.80,WSW,248,4.0,11.0,42,0.00,,,0.00,meteohub,2013-02-28 12:54:00,
2013-02-28 07:56:00,29.5,9.1,29.80,WSW,248,7.0,11.0,42,0.00,,,0.00,meteohub,2013-02-28 12:56:00,
2013-02-28 07:59:00,29.5,9.1,29.80,WSW,248,5.0,11.0,42,0.00,,,0.00,meteohub,2013-02-28 12:59:00,
2013-02-28 08:02:00,29.5,9.1,29.80,WSW,248,7.0,11.0,42,0.00,,,0.00,meteohub,2013-02-28 13:02:00,
2013-02-28 08:04:00,29.7,9.3,29.81,WSW,248,5.0,11.0,42,0.00,,,0.00,meteohub,2013-02-28 13:04:00,
2013-02-28 08:07:00,29.7,9.3,29.80,WSW,248,5.0,9.0,42,0.00,,,0.00,meteohub,2013-02-28 13:07:00,
2013-02-28 08:09:00,29.7,9.3,29.81,WSW,248,11.0,11.0,42,0.00,,,0.00,meteohub,2013-02-28 13:09:00,
2013-02-28 08:11:00,29.7,9.3,29.80,WSW,248,5.0,11.0,42,0.00,,,0.00,meteohub,2013-02-28 13:11:00,
2013-02-28 08:13:00,29.7,9.3,29.80,WSW,248,3.0,11.0,42,0.00,,,0.00,meteohub,2013-02-28 13:13:00,
2013-02-28 08:15:00,29.7,9.3,29.81,WSW,248,12.0,12.0,42,0.00,,,0.00,meteohub,2013-02-28 13:15:00,
2013-02-28 08:16:00,29.7,8.8,29.81,WSW,248,8.0,11.0,41,0.00,,,0.00,meteohub,2013-02-28 13:16:00,
2013-02-28 08:18:00,29.7,8.8,29.80,WSW,248,8.0,11.0,41,0.00,,,0.00,meteohub,2013-02-28 13:18:00,
2013-02-28 08:20:00,29.8,9.0,29.80,WSW,248,2.0,11.0,41,0.00,,,0.00,meteohub,2013-02-28 13:20:00,
2013-02-28 08:21:00,29.8,9.0,29.80,WSW,248,4.0,12.0,41,0.00,,,0.00,meteohub,2013-02-28 13:21:00,
2013-02-28 08:22:00,29.8,9.0,29.80,WSW,248,4.0,12.0,41,0.00,,,0.00,meteohub,2013-02-28 13:22:00,
2013-02-28 08:23:00,30.0,9.1,29.80,WSW,248,4.0,12.0,41,0.00,,,0.00,meteohub,2013-02-28 13:23:00,
2013-02-28 08:25:00,30.0,9.1,29.80,WSW,248,4.0,12.0,41,0.00,,,0.00,meteohub,2013-02-28 13:25:00,
2013-02-28 08:26:00,30.0,9.1,29.80,WSW,248,9.0,12.0,41,0.00,,,0.00,meteohub,2013-02-28 13:26:00,
2013-02-28 08:27:00,30.0,8.6,29.80,WSW,248,9.0,12.0,40,0.00,,,0.00,meteohub,2013-02-28 13:27:00,
2013-02-28 08:28:00,30.0,8.6,29.81,WSW,248,4.0,12.0,40,0.00,,,0.00,meteohub,2013-02-28 13:28:00,
2013-02-28 08:30:00,30.0,8.6,29.80,WSW,248,6.0,12.0,40,0.00,,,0.00,meteohub,2013-02-28 13:30:00,
2013-02-28 08:32:00,29.8,8.4,29.80,WSW,248,5.0,12.0,40,0.00,,,0.00,meteohub,2013-02-28 13:32:00,
2013-02-28 08:35:00,29.8,8.4,29.80,WSW,248,5.0,12.0,40,0.00,,,0.00,meteohub,2013-02-28 13:35:00,
2013-02-28 08:37:00,29.8,8.4,29.81,WSW,248,11.0,11.0,40,0.00,,,0.00,meteohub,2013-02-28 13:37:00,
2013-02-28 08:38:00,29.8,7.9,29.80,WSW,248,9.0,10.0,39,0.00,,,0.00,meteohub,2013-02-28 13:38:00,
2013-02-28 08:40:00,29.8,7.9,29.81,WSW,248,5.0,10.0,39,0.00,,,0.00,meteohub,2013-02-28 13:40:00,
2013-02-28 08:42:00,29.8,7.9,29.80,WSW,248,3.0,11.0,39,0.00,,,0.00,meteohub,2013-02-28 13:42:00,
2013-02-28 08:44:00,29.8,7.9,29.80,WSW,248,13.0,13.0,39,0.00,,,0.00,meteohub,2013-02-28 13:44:00,
2013-02-28 08:45:00,29.8,7.9,29.81,WSW,248,8.0,11.0,39,0.00,,,0.00,meteohub,2013-02-28 13:45:00,
2013-02-28 08:47:00,29.8,7.9,29.81,WSW,248,4.0,11.0,39,0.00,,,0.00,meteohub,2013-02-28 13:47:00,
2013-02-28 08:49:00,29.8,7.9,29.80,WSW,248,6.0,11.0,39,0.00,,,0.00,meteohub,2013-02-28 13:49:00,
2013-02-28 08:51:00,29.8,7.9,29.80,WSW,248,6.0,13.0,39,0.00,,,0.00,meteohub,2013-02-28 13:51:00,
2013-02-28 08:52:00,29.8,7.9,29.80,WSW,248,10.0,13.0,39,0.00,,,0.00,meteohub,2013-02-28 13:52:00,
2013-02-28 08:56:00,29.8,7.9,29.81,WSW,248,6.0,13.0,39,0.00,,,0.00,meteohub,2013-02-28 13:56:00,
2013-02-28 08:57:00,29.8,7.9,29.81,WSW,248,8.0,13.0,39,0.00,,,0.00,meteohub,2013-02-28 13:57:00,
2013-02-28 08:58:00,29.8,7.9,29.80,WSW,248,9.0,13.0,39,0.00,,,0.00,meteohub,2013-02-28 13:58:00,
2013-02-28 09:01:00,29.8,7.9,29.81,WSW,248,4.0,11.0,39,0.00,,,0.00,meteohub,2013-02-28 14:01:00,
2013-02-28 09:02:00,29.8,7.9,29.80,WSW,248,7.0,11.0,39,0.00,,,0.00,meteohub,2013-02-28 14:02:00,
2013-02-28 09:03:00,29.8,7.9,29.81,WSW,248,7.0,11.0,39,0.00,,,0.00,meteohub,2013-02-28 14:03:00,
2013-02-28 09:06:00,30.0,8.1,29.81,WSW,248,3.0,11.0,39,0.00,,,0.00,meteohub,2013-02-28 14:06:00,
2013-02-28 09:07:00,30.0,8.1,29.81,WSW,248,3.0,11.0,39,0.00,,,0.00,meteohub,2013-02-28 14:07:00,
2013-02-28 09:08:00,30.0,8.1,29.81,WSW,248,6.0,11.0,39,0.00,,,0.00,meteohub,2013-02-28 14:08:00,
2013-02-28 09:12:00,30.0,8.1,29.81,WSW,248,3.0,10.0,39,0.00,,,0.00,meteohub,2013-02-28 14:12:00,
2013-02-28 09:13:00,30.0,7.5,29.81,WSW,248,5.0,10.0,38,0.00,,,0.00,meteohub,2013-02-28 14:13:00,
2013-02-28 09:16:00,30.0,7.5,29.81,WSW,248,6.0,10.0,38,0.00,,,0.00,meteohub,2013-02-28 14:16:00,
2013-02-28 09:18:00,30.0,7.5,29.81,WSW,248,12.0,12.0,38,0.00,,,0.00,meteohub,2013-02-28 14:18:00,
2013-02-28 09:19:00,29.8,7.3,29.81,WSW,248,5.0,10.0,38,0.00,,,0.00,meteohub,2013-02-28 14:19:00,
2013-02-28 09:21:00,29.8,7.3,29.81,WSW,248,4.0,12.0,38,0.00,,,0.00,meteohub,2013-02-28 14:21:00,
2013-02-28 09:23:00,29.8,6.8,29.80,WSW,248,6.0,12.0,37,0.00,,,0.00,meteohub,2013-02-28 14:23:00,
2013-02-28 09:24:00,29.8,6.8,29.81,WSW,248,5.0,12.0,37,0.00,,,0.00,meteohub,2013-02-28 14:24:00,
2013-02-28 09:26:00,29.8,6.8,29.81,WSW,248,7.0,12.0,37,0.00,,,0.00,meteohub,2013-02-28 14:26:00,
2013-02-28 09:28:00,29.8,6.8,29.81,WSW,248,7.0,12.0,37,0.00,,,0.00,meteohub,2013-02-28 14:28:00,
2013-02-28 09:30:00,29.8,6.1,29.81,WSW,248,3.0,12.0,36,0.00,,,0.00,meteohub,2013-02-28 14:30:00,
2013-02-28 09:32:00,29.8,6.1,29.81,WSW,248,4.0,12.0,36,0.00,,,0.00,meteohub,2013-02-28 14:32:00,
2013-02-28 09:33:00,29.8,6.1,29.81,WSW,248,6.0,12.0,36,0.00,,,0.00,meteohub,2013-02-28 14:33:00,
2013-02-28 09:35:00,30.0,6.3,29.81,WSW,248,3.0,10.0,36,0.00,,,0.00,meteohub,2013-02-28 14:35:00,
2013-02-28 09:36:00,30.0,6.3,29.81,WSW,248,3.0,10.0,36,0.00,,,0.00,meteohub,2013-02-28 14:36:00,
2013-02-28 09:37:00,29.8,6.1,29.81,WSW,248,5.0,10.0,36,0.00,,,0.00,meteohub,2013-02-28 14:37:00,
2013-02-28 09:39:00,29.8,6.1,29.81,WSW,248,4.0,10.0,36,0.00,,,0.00,meteohub,2013-02-28 14:39:00,
2013-02-28 09:40:00,29.8,6.1,29.81,WSW,248,8.0,11.0,36,0.00,,,0.00,meteohub,2013-02-28 14:40:00,
2013-02-28 09:41:00,29.8,6.1,29.81,WSW,248,8.0,11.0,36,0.00,,,0.00,meteohub,2013-02-28 14:41:00,
2013-02-28 09:42:00,29.8,6.1,29.81,WSW,248,8.0,11.0,36,0.00,,,0.00,meteohub,2013-02-28 14:42:00,
2013-02-28 09:44:00,29.8,6.1,29.81,WSW,248,10.0,11.0,36,0.00,,,0.00,meteohub,2013-02-28 14:44:00,
2013-02-28 09:46:00,29.8,6.1,29.81,WSW,248,10.0,11.0,36,0.00,,,0.00,meteohub,2013-02-28 14:46:00,
2013-02-28 09:47:00,30.0,5.7,29.81,WSW,248,5.0,11.0,35,0.00,,,0.00,meteohub,2013-02-28 14:47:00,
2013-02-28 09:50:00,30.0,5.7,29.81,WSW,248,2.0,11.0,35,0.00,,,0.00,meteohub,2013-02-28 14:50:00,
2013-02-28 09:51:00,30.0,5.7,29.81,WSW,248,4.0,11.0,35,0.00,,,0.00,meteohub,2013-02-28 14:51:00,
2013-02-28 09:52:00,30.0,5.7,29.81,WSW,248,2.0,11.0,35,0.00,,,0.00,meteohub,2013-02-28 14:52:00,
2013-02-28 09:55:00,30.2,5.9,29.81,WSW,248,7.0,11.0,35,0.00,,,0.00,meteohub,2013-02-28 14:55:00,
2013-02-28 09:56:00,30.0,5.7,29.82,WSW,248,8.0,10.0,35,0.00,,,0.00,meteohub,2013-02-28 14:56:00,
2013-02-28 09:57:00,30.0,5.7,29.81,WSW,248,4.0,10.0,35,0.00,,,0.00,meteohub,2013-02-28 14:57:00,
2013-02-28 09:58:00,30.0,5.7,29.81,WSW,248,5.0,10.0,35,0.00,,,0.00,meteohub,2013-02-28 14:58:00,
2013-02-28 10:00:00,30.0,5.7,29.81,WSW,248,4.0,10.0,35,0.00,,,0.00,meteohub,2013-02-28 15:00:00,
2013-02-28 10:01:00,30.0,5.7,29.82,WSW,248,5.0,10.0,35,0.00,,,0.00,meteohub,2013-02-28 15:01:00,
2013-02-28 10:03:00,29.8,5.5,29.81,WSW,248,6.0,10.0,35,0.00,,,0.00,meteohub,2013-02-28 15:03:00,
2013-02-28 10:05:00,30.0,5.7,29.82,WSW,248,3.0,8.0,35,0.00,,,0.00,meteohub,2013-02-28 15:05:00,
2013-02-28 10:06:00,29.8,5.5,29.81,WSW,248,8.0,8.0,35,0.00,,,0.00,meteohub,2013-02-28 15:06:00,
2013-02-28 10:08:00,29.8,4.8,29.82,WSW,248,7.0,8.0,34,0.00,,,0.00,meteohub,2013-02-28 15:08:00,
2013-02-28 10:10:00,29.8,5.5,29.81,WSW,248,4.0,8.0,35,0.00,,,0.00,meteohub,2013-02-28 15:10:00,
2013-02-28 10:11:00,29.8,4.8,29.81,WSW,248,6.0,10.0,34,0.00,,,0.00,meteohub,2013-02-28 15:11:00,
2013-02-28 10:12:00,29.8,5.5,29.81,WSW,248,4.0,10.0,35,0.00,,,0.00,meteohub,2013-02-28 15:12:00,
2013-02-28 10:14:00,29.8,5.5,29.81,WSW,248,5.0,10.0,35,0.00,,,0.00,meteohub,2013-02-28 15:14:00,
2013-02-28 10:15:00,29.8,5.5,29.81,WSW,248,4.0,10.0,35,0.00,,,0.00,meteohub,2013-02-28 15:15:00,
2013-02-28 10:17:00,29.8,5.5,29.81,WSW,248,6.0,10.0,35,0.00,,,0.00,meteohub,2013-02-28 15:17:00,
2013-02-28 10:19:00,29.8,5.5,29.81,WSW,248,7.0,10.0,35,0.00,,,0.00,meteohub,2013-02-28 15:19:00,
2013-02-28 10:20:00,29.8,5.5,29.81,WSW,248,7.0,10.0,35,0.00,,,0.00,meteohub,2013-02-28 15:20:00,
2013-02-28 10:22:00,29.8,5.5,29.81,WSW,248,4.0,10.0,35,0.00,,,0.00,meteohub,2013-02-28 15:22:00,
2013-02-28 10:23:00,29.8,5.5,29.81,WSW,248,5.0,10.0,35,0.00,,,0.00,meteohub,2013-02-28 15:23:00,
2013-02-28 10:24:00,29.8,5.5,29.81,WSW,248,5.0,10.0,35,0.00,,,0.00,meteohub,2013-02-28 15:24:00,
2013-02-28 10:25:00,29.8,5.5,29.82,WSW,248,3.0,8.0,35,0.00,,,0.00,meteohub,2013-02-28 15:25:00,
2013-02-28 10:27:00,29.8,5.5,29.82,WSW,248,10.0,10.0,35,0.00,,,0.00,meteohub,2013-02-28 15:27:00,
2013-02-28 10:29:00,29.7,5.4,29.81,North,0,14.0,14.0,35,0.00,,,0.00,meteohub,2013-02-28 15:29:00,
2013-02-28 10:30:00,29.7,5.4,29.81,West,270,5.0,14.0,35,0.00,,,0.00,meteohub,2013-02-28 15:30:00,
2013-02-28 10:32:00,29.8,5.5,29.81,South,180,7.0,14.0,35,0.00,,,0.00,meteohub,2013-02-28 15:32:00,
2013-02-28 10:34:00,29.7,5.4,29.81,WSW,248,8.0,14.0,35,0.00,,,0.00,meteohub,2013-02-28 15:34:00,
2013-02-28 10:35:00,29.7,5.4,29.81,West,270,6.0,14.0,35,0.00,,,0.00,meteohub,2013-02-28 15:35:00,
2013-02-28 10:37:00,29.7,5.4,29.82,WSW,248,7.0,14.0,35,0.00,,,0.00,meteohub,2013-02-28 15:37:00,
2013-02-28 10:40:00,29.5,5.2,29.82,NW,315,4.0,14.0,35,0.00,,,0.00,meteohub,2013-02-28 15:40:00,
2013-02-28 10:41:00,29.5,5.2,29.82,South,180,5.0,14.0,35,0.00,,,0.00,meteohub,2013-02-28 15:41:00,
2013-02-28 10:42:00,29.5,5.2,29.82,West,270,10.0,14.0,35,0.00,,,0.00,meteohub,2013-02-28 15:42:00,
2013-02-28 10:43:00,29.5,5.2,29.82,WSW,248,4.0,14.0,35,0.00,,,0.00,meteohub,2013-02-28 15:43:00,
2013-02-28 10:45:00,29.5,5.2,29.82,WSW,248,8.0,14.0,35,0.00,,,0.00,meteohub,2013-02-28 15:45:00,
2013-02-28 10:46:00,29.5,5.2,29.82,WSW,248,8.0,10.0,35,0.00,,,0.00,meteohub,2013-02-28 15:46:00,
2013-02-28 10:47:00,29.5,5.7,29.82,WSW,248,4.0,10.0,36,0.00,,,0.00,meteohub,2013-02-28 15:47:00,
2013-02-28 10:49:00,29.5,5.7,29.82,WSW,248,6.0,10.0,36,0.00,,,0.00,meteohub,2013-02-28 15:49:00,
2013-02-28 10:50:00,29.5,5.7,29.82,West,270,4.0,10.0,36,0.00,,,0.00,meteohub,2013-02-28 15:50:00,
2013-02-28 10:52:00,29.5,5.7,29.82,WSW,248,2.0,10.0,36,0.00,,,0.00,meteohub,2013-02-28 15:52:00,
2013-02-28 10:55:00,29.7,5.9,29.82,WSW,248,6.0,10.0,36,0.00,,,0.00,meteohub,2013-02-28 15:55:00,
2013-02-28 10:57:00,29.7,5.9,29.82,WSW,248,11.0,11.0,36,0.00,,,0.00,meteohub,2013-02-28 15:57:00,
2013-02-28 10:59:00,29.7,6.6,29.82,WSW,248,3.0,10.0,37,0.00,,,0.00,meteohub,2013-02-28 15:59:00,
2013-02-28 11:00:00,29.7,6.6,29.82,South,180,4.0,11.0,37,0.00,,,0.00,meteohub,2013-02-28 16:00:00,
2013-02-28 11:02:00,29.7,6.6,29.82,West,270,9.0,11.0,37,0.00,,,0.00,meteohub,2013-02-28 16:02:00,
2013-02-28 11:03:00,29.5,6.4,29.82,SE,135,5.0,11.0,37,0.00,,,0.00,meteohub,2013-02-28 16:03:00,
2013-02-28 11:04:00,29.5,6.4,29.82,WSW,248,6.0,11.0,37,0.00,,,0.00,meteohub,2013-02-28 16:04:00,
2013-02-28 11:05:00,29.5,6.4,29.82,North,0,3.0,11.0,37,0.00,,,0.00,meteohub,2013-02-28 16:05:00,
2013-02-28 11:07:00,29.7,7.2,29.83,WSW,248,3.0,11.0,38,0.00,,,0.00,meteohub,2013-02-28 16:07:00,
2013-02-28 11:08:00,29.7,7.2,29.82,NW,315,5.0,11.0,38,0.00,,,0.00,meteohub,2013-02-28 16:08:00,
2013-02-28 11:09:00,29.7,7.2,29.82,WSW,248,2.0,11.0,38,0.00,,,0.00,meteohub,2013-02-28 16:09:00,
2013-02-28 11:10:00,29.7,7.2,29.82,South,180,2.0,11.0,38,0.00,,,0.00,meteohub,2013-02-28 16:10:00,
2013-02-28 11:13:00,29.8,7.3,29.83,South,180,4.0,11.0,38,0.00,,,0.00,meteohub,2013-02-28 16:13:00,
2013-02-28 11:15:00,29.8,7.3,29.82,West,270,10.0,11.0,38,0.00,,,0.00,meteohub,2013-02-28 16:15:00,
2013-02-28 11:16:00,29.8,7.3,29.82,West,270,10.0,10.0,38,0.00,,,0.00,meteohub,2013-02-28 16:16:00,
2013-02-28 11:18:00,29.8,7.9,29.82,West,270,6.0,9.0,39,0.00,,,0.00,meteohub,2013-02-28 16:18:00,
2013-02-28 11:20:00,29.8,7.9,29.82,North,0,9.0,14.0,39,0.00,,,0.00,meteohub,2013-02-28 16:20:00,
2013-02-28 11:22:00,29.8,7.9,29.82,South,180,8.0,14.0,39,0.00,,,0.00,meteohub,2013-02-28 16:22:00,
2013-02-28 11:24:00,29.8,7.9,29.82,South,180,5.0,14.0,39,0.00,,,0.00,meteohub,2013-02-28 16:24:00,
2013-02-28 11:26:00,30.0,8.1,29.82,South,180,8.0,14.0,39,0.00,,,0.00,meteohub,2013-02-28 16:26:00,
2013-02-28 11:27:00,30.0,8.1,29.82,West,270,4.0,14.0,39,0.00,,,0.00,meteohub,2013-02-28 16:27:00,
2013-02-28 11:29:00,30.4,9.0,29.82,West,270,7.0,14.0,40,0.00,,,0.00,meteohub,2013-02-28 16:29:00,
2013-02-28 11:30:00,30.4,9.0,29.82,West,270,7.0,14.0,40,0.00,,,0.00,meteohub,2013-02-28 16:30:00,
2013-02-28 11:31:00,30.4,9.0,29.82,West,270,7.0,11.0,40,0.00,,,0.00,meteohub,2013-02-28 16:31:00,
2013-02-28 11:32:00,30.6,9.1,29.82,WSW,248,9.0,11.0,40,0.00,,,0.00,meteohub,2013-02-28 16:32:00,
2013-02-28 11:35:00,30.4,9.0,29.82,West,270,11.0,11.0,40,0.00,,,0.00,meteohub,2013-02-28 16:35:00,
2013-02-28 11:36:00,30.4,9.0,29.82,West,270,10.0,11.0,40,0.00,,,0.00,meteohub,2013-02-28 16:36:00,
2013-02-28 11:38:00,30.6,9.1,29.82,West,270,9.0,11.0,40,0.00,,,0.00,meteohub,2013-02-28 16:38:00,
2013-02-28 11:41:00,30.7,9.3,29.83,NW,315,4.0,11.0,40,0.00,,,0.00,meteohub,2013-02-28 16:41:00,
2013-02-28 11:42:00,30.9,9.5,29.82,WNW,293,11.0,11.0,40,0.00,,,0.00,meteohub,2013-02-28 16:42:00,
2013-02-28 11:43:00,30.9,9.5,29.82,WSW,248,5.0,11.0,40,0.00,,,0.00,meteohub,2013-02-28 16:43:00,
2013-02-28 11:44:00,30.9,9.5,29.82,West,270,4.0,11.0,40,0.00,,,0.00,meteohub,2013-02-28 16:44:00,
2013-02-28 11:46:00,30.9,9.5,29.82,West,270,6.0,11.0,40,0.00,,,0.00,meteohub,2013-02-28 16:46:00,
2013-02-28 11:47:00,30.7,8.8,29.82,South,180,9.0,11.0,39,0.00,,,0.00,meteohub,2013-02-28 16:47:00,
2013-02-28 11:49:00,30.7,8.8,29.82,WSW,248,4.0,11.0,39,0.00,,,0.00,meteohub,2013-02-28 16:49:00,
2013-02-28 11:52:00,30.7,8.8,29.83,West,270,5.0,11.0,39,0.00,,,0.00,meteohub,2013-02-28 16:52:00,
2013-02-28 11:53:00,30.7,8.8,29.82,WSW,248,4.0,11.0,39,0.00,,,0.00,meteohub,2013-02-28 16:53:00,
2013-02-28 11:54:00,30.6,8.6,29.82,West,270,12.0,12.0,39,0.00,,,0.00,meteohub,2013-02-28 16:54:00,
2013-02-28 11:55:00,30.6,8.6,29.82,WSW,248,9.0,11.0,39,0.00,,,0.00,meteohub,2013-02-28 16:55:00,
2013-02-28 11:58:00,30.4,8.4,29.82,West,270,4.0,12.0,39,0.00,,,0.00,meteohub,2013-02-28 16:58:00,
2013-02-28 11:59:00,30.4,8.4,29.82,WSW,248,4.0,12.0,39,0.00,,,0.00,meteohub,2013-02-28 16:59:00,
2013-02-28 12:00:00,30.4,8.4,29.82,WSW,248,4.0,12.0,39,0.00,,,0.00,meteohub,2013-02-28 17:00:00,
2013-02-28 12:03:00,30.6,8.6,29.82,West,270,8.0,12.0,39,0.00,,,0.00,meteohub,2013-02-28 17:03:00,
2013-02-28 12:05:00,30.7,8.8,29.82,South,180,4.0,12.0,39,0.00,,,0.00,meteohub,2013-02-28 17:05:00,
2013-02-28 12:06:00,30.9,8.8,29.82,West,270,3.0,12.0,39,0.00,,,0.00,meteohub,2013-02-28 17:06:00,
2013-02-28 12:08:00,30.9,8.8,29.82,South,180,7.0,12.0,39,0.00,,,0.00,meteohub,2013-02-28 17:08:00,
2013-02-28 12:10:00,30.9,8.8,29.82,WSW,248,7.0,11.0,39,0.00,,,0.00,meteohub,2013-02-28 17:10:00,
2013-02-28 12:11:00,31.1,9.0,29.82,WSW,248,4.0,11.0,39,0.00,,,0.00,meteohub,2013-02-28 17:11:00,
2013-02-28 12:14:00,31.3,9.1,29.82,North,0,8.0,11.0,39,0.00,,,0.00,meteohub,2013-02-28 17:14:00,
2013-02-28 12:16:00,31.1,9.0,29.82,WSW,248,8.0,11.0,39,0.00,,,0.00,meteohub,2013-02-28 17:16:00,
2013-02-28 12:17:00,31.1,8.4,29.82,North,0,4.0,11.0,38,0.00,,,0.00,meteohub,2013-02-28 17:17:00,
2013-02-28 12:20:00,31.1,8.4,29.82,WSW,248,5.0,11.0,38,0.00,,,0.00,meteohub,2013-02-28 17:20:00,
2013-02-28 12:21:00,30.9,7.7,29.81,WSW,248,10.0,14.0,37,0.00,,,0.00,meteohub,2013-02-28 17:21:00,
2013-02-28 12:22:00,30.9,7.7,29.82,WSW,248,7.0,14.0,37,0.00,,,0.00,meteohub,2013-02-28 17:22:00,
2013-02-28 12:23:00,30.9,7.7,29.82,WSW,248,6.0,14.0,37,0.00,,,0.00,meteohub,2013-02-28 17:23:00,
2013-02-28 12:25:00,30.9,7.7,29.82,WSW,248,9.0,14.0,37,0.00,,,0.00,meteohub,2013-02-28 17:25:00,
2013-02-28 12:26:00,30.9,7.7,29.82,WSW,248,4.0,14.0,37,0.00,,,0.00,meteohub,2013-02-28 17:26:00,
2013-02-28 12:27:00,30.9,7.7,29.82,WSW,248,14.0,14.0,37,0.00,,,0.00,meteohub,2013-02-28 17:27:00,
2013-02-28 12:28:00,30.9,7.7,29.82,WSW,248,8.0,14.0,37,0.00,,,0.00,meteohub,2013-02-28 17:28:00,
2013-02-28 12:30:00,30.9,7.7,29.82,WSW,248,6.0,14.0,37,0.00,,,0.00,meteohub,2013-02-28 17:30:00,
2013-02-28 12:32:00,31.1,7.9,29.83,WSW,248,11.0,14.0,37,0.00,,,0.00,meteohub,2013-02-28 17:32:00,
2013-02-28 12:33:00,31.3,8.1,29.81,WSW,248,4.0,14.0,37,0.00,,,0.00,meteohub,2013-02-28 17:33:00,
2013-02-28 12:35:00,31.5,8.2,29.82,West,270,6.0,14.0,37,0.00,,,0.00,meteohub,2013-02-28 17:35:00,
2013-02-28 12:36:00,31.5,8.2,29.82,West,270,6.0,14.0,37,0.00,,,0.00,meteohub,2013-02-28 17:36:00,
2013-02-28 12:37:00,31.5,8.2,29.82,West,270,8.0,14.0,37,0.00,,,0.00,meteohub,2013-02-28 17:37:00,
2013-02-28 12:38:00,31.5,8.2,29.82,South,180,8.0,14.0,37,0.00,,,0.00,meteohub,2013-02-28 17:38:00,
2013-02-28 12:40:00,31.5,8.2,29.82,WSW,248,4.0,14.0,37,0.00,,,0.00,meteohub,2013-02-28 17:40:00,
2013-02-28 12:42:00,31.5,8.2,29.82,WSW,248,4.0,14.0,37,0.00,,,0.00,meteohub,2013-02-28 17:42:00,
2013-02-28 12:44:00,31.6,7.7,29.82,South,180,6.0,14.0,36,0.00,,,0.00,meteohub,2013-02-28 17:44:00,
2013-02-28 12:45:00,31.6,7.7,29.82,West,270,8.0,11.0,36,0.00,,,0.00,meteohub,2013-02-28 17:45:00,
2013-02-28 12:47:00,31.5,7.5,29.82,South,180,4.0,11.0,36,0.00,,,0.00,meteohub,2013-02-28 17:47:00,
2013-02-28 12:49:00,31.5,7.5,29.82,WSW,248,5.0,11.0,36,0.00,,,0.00,meteohub,2013-02-28 17:49:00,
2013-02-28 12:50:00,31.5,7.5,29.82,WSW,248,4.0,10.0,36,0.00,,,0.00,meteohub,2013-02-28 17:50:00,
2013-02-28 12:52:00,31.6,7.7,29.82,WSW,248,4.0,10.0,36,0.00,,,0.00,meteohub,2013-02-28 17:52:00,
2013-02-28 12:54:00,31.6,8.4,29.82,NW,315,4.0,10.0,37,0.00,,,0.00,meteohub,2013-02-28 17:54:00,
2013-02-28 12:55:00,31.6,8.4,29.82,WSW,248,4.0,10.0,37,0.00,,,0.00,meteohub,2013-02-28 17:55:00,
2013-02-28 12:56:00,31.6,8.4,29.82,South,180,9.0,10.0,37,0.00,,,0.00,meteohub,2013-02-28 17:56:00,
2013-02-28 12:57:00,31.5,8.2,29.82,WSW,248,4.0,10.0,37,0.00,,,0.00,meteohub,2013-02-28 17:57:00,
2013-02-28 12:59:00,31.3,8.1,29.81,North,0,10.0,10.0,37,0.00,,,0.00,meteohub,2013-02-28 17:59:00,
2013-02-28 13:01:00,31.3,8.1,29.81,North,0,10.0,13.0,37,0.00,,,0.00,meteohub,2013-02-28 18:01:00,
2013-02-28 13:02:00,31.3,8.1,29.81,WSW,248,8.0,13.0,37,0.00,,,0.00,meteohub,2013-02-28 18:02:00,
2013-02-28 13:05:00,31.3,8.6,29.82,WSW,248,4.0,13.0,38,0.00,,,0.00,meteohub,2013-02-28 18:05:00,
2013-02-28 13:06:00,31.3,8.6,29.81,West,270,3.0,13.0,38,0.00,,,0.00,meteohub,2013-02-28 18:06:00,
2013-02-28 13:07:00,31.5,8.8,29.81,NW,315,4.0,13.0,38,0.00,,,0.00,meteohub,2013-02-28 18:07:00,
2013-02-28 13:08:00,31.3,8.6,29.81,WSW,248,9.0,13.0,38,0.00,,,0.00,meteohub,2013-02-28 18:08:00,
2013-02-28 13:10:00,31.1,8.4,29.81,WSW,248,8.0,13.0,38,0.00,,,0.00,meteohub,2013-02-28 18:10:00,
2013-02-28 13:11:00,31.1,8.4,29.81,West,270,11.0,13.0,38,0.00,,,0.00,meteohub,2013-02-28 18:11:00,
2013-02-28 13:12:00,30.9,8.2,29.81,WSW,248,8.0,13.0,38,0.00,,,0.00,meteohub,2013-02-28 18:12:00,
2013-02-28 13:14:00,30.9,8.8,29.81,West,270,8.0,13.0,39,0.00,,,0.00,meteohub,2013-02-28 18:14:00,
2013-02-28 13:16:00,30.9,8.8,29.82,WSW,248,4.0,13.0,39,0.00,,,0.00,meteohub,2013-02-28 18:16:00,
2013-02-28 13:18:00,31.3,9.1,29.81,WSW,248,4.0,13.0,39,0.00,,,0.00,meteohub,2013-02-28 18:18:00,
2013-02-28 13:19:00,31.6,10.0,29.81,WSW,248,4.0,13.0,40,0.00,,,0.00,meteohub,2013-02-28 18:19:00,
2013-02-28 13:21:00,31.8,10.2,29.81,WNW,293,5.0,13.0,40,0.00,,,0.00,meteohub,2013-02-28 18:21:00,
2013-02-28 13:24:00,31.5,9.9,29.81,WSW,248,11.0,13.0,40,0.00,,,0.00,meteohub,2013-02-28 18:24:00,
2013-02-28 13:26:00,31.5,9.9,29.81,West,270,8.0,13.0,40,0.00,,,0.00,meteohub,2013-02-28 18:26:00,
2013-02-28 13:27:00,31.5,9.9,29.81,WSW,248,4.0,13.0,40,0.00,,,0.00,meteohub,2013-02-28 18:27:00,
2013-02-28 13:30:00,31.3,9.7,29.81,WSW,248,5.0,13.0,40,0.00,,,0.00,meteohub,2013-02-28 18:30:00,
2013-02-28 13:31:00,31.3,9.7,29.81,WSW,248,5.0,11.0,40,0.00,,,0.00,meteohub,2013-02-28 18:31:00,
2013-02-28 13:32:00,31.5,9.9,29.81,WSW,248,10.0,11.0,40,0.00,,,0.00,meteohub,2013-02-28 18:32:00,
2013-02-28 13:35:00,31.3,9.7,29.81,South,180,3.0,11.0,40,0.00,,,0.00,meteohub,2013-02-28 18:35:00,
2013-02-28 13:36:00,31.3,9.7,29.81,SE,135,4.0,11.0,40,0.00,,,0.00,meteohub,2013-02-28 18:36:00,
2013-02-28 13:37:00,31.5,9.9,29.81,WSW,248,7.0,11.0,40,0.00,,,0.00,meteohub,2013-02-28 18:37:00,
2013-02-28 13:38:00,31.5,9.9,29.81,West,270,4.0,11.0,40,0.00,,,0.00,meteohub,2013-02-28 18:38:00,
2013-02-28 13:40:00,31.5,9.9,29.81,NW,315,10.0,11.0,40,0.00,,,0.00,meteohub,2013-02-28 18:40:00,
2013-02-28 13:42:00,31.3,9.7,29.81,WNW,293,4.0,11.0,40,0.00,,,0.00,meteohub,2013-02-28 18:42:00,
2013-02-28 13:43:00,31.3,9.7,29.81,WSW,248,4.0,11.0,40,0.00,,,0.00,meteohub,2013-02-28 18:43:00,
2013-02-28 13:45:00,31.5,9.9,29.81,WSW,248,4.0,11.0,40,0.00,,,0.00,meteohub,2013-02-28 18:45:00,
2013-02-28 13:47:00,31.5,10.4,29.81,WSW,248,5.0,11.0,41,0.00,,,0.00,meteohub,2013-02-28 18:47:00,
2013-02-28 13:48:00,31.5,10.4,29.81,WSW,248,9.0,11.0,41,0.00,,,0.00,meteohub,2013-02-28 18:48:00,
2013-02-28 13:51:00,31.3,10.2,29.81,West,270,4.0,10.0,41,0.00,,,0.00,meteohub,2013-02-28 18:51:00,
2013-02-28 13:53:00,31.3,10.2,29.81,South,180,4.0,10.0,41,0.00,,,0.00,meteohub,2013-02-28 18:53:00,
2013-02-28 13:54:00,31.5,10.4,29.81,SSW,203,4.0,10.0,41,0.00,,,0.00,meteohub,2013-02-28 18:54:00,
2013-02-28 13:55:00,31.5,10.4,29.81,South,180,3.0,10.0,41,0.00,,,0.00,meteohub,2013-02-28 18:55:00,
2013-02-28 13:57:00,31.6,10.6,29.81,WSW,248,4.0,9.0,41,0.00,,,0.00,meteohub,2013-02-28 18:57:00,
2013-02-28 13:58:00,31.6,10.6,29.81,NW,315,11.0,11.0,41,0.00,,,0.00,meteohub,2013-02-28 18:58:00,
2013-02-28 13:59:00,31.5,10.4,29.81,WSW,248,9.0,9.0,41,0.00,,,0.00,meteohub,2013-02-28 18:59:00,
2013-02-28 14:00:00,31.6,10.6,29.81,WSW,248,9.0,9.0,41,0.00,,,0.00,meteohub,2013-02-28 19:00:00,
2013-02-28 14:02:00,31.6,10.6,29.81,West,270,6.0,11.0,41,0.00,,,0.00,meteohub,2013-02-28 19:02:00,
2013-02-28 14:04:00,31.6,10.6,29.81,WSW,248,6.0,11.0,41,0.00,,,0.00,meteohub,2013-02-28 19:04:00,
2013-02-28 14:05:00,31.6,10.6,29.81,South,180,6.0,11.0,41,0.00,,,0.00,meteohub,2013-02-28 19:05:00,
2013-02-28 14:06:00,31.5,10.4,29.81,West,270,5.0,11.0,41,0.00,,,0.00,meteohub,2013-02-28 19:06:00,
2013-02-28 14:07:00,31.5,10.4,29.81,NW,315,4.0,11.0,41,0.00,,,0.00,meteohub,2013-02-28 19:07:00,
2013-02-28 14:09:00,31.5,10.4,29.81,North,0,8.0,11.0,41,0.00,,,0.00,meteohub,2013-02-28 19:09:00,
2013-02-28 14:10:00,31.6,10.6,29.81,NW,315,3.0,11.0,41,0.00,,,0.00,meteohub,2013-02-28 19:10:00,
2013-02-28 14:11:00,31.6,10.6,29.81,NW,315,9.0,11.0,41,0.00,,,0.00,meteohub,2013-02-28 19:11:00,
2013-02-28 14:13:00,31.6,10.6,29.81,WSW,248,4.0,11.0,41,0.00,,,0.00,meteohub,2013-02-28 19:13:00,
2013-02-28 14:14:00,31.8,10.8,29.81,South,180,8.0,11.0,41,0.00,,,0.00,meteohub,2013-02-28 19:14:00,
2013-02-28 14:15:00,31.6,10.6,29.81,West,270,7.0,11.0,41,0.00,,,0.00,meteohub,2013-02-28 19:15:00,
2013-02-28 14:16:00,31.6,10.6,29.81,West,270,4.0,11.0,41,0.00,,,0.00,meteohub,2013-02-28 19:16:00,
2013-02-28 14:19:00,31.6,10.6,29.81,West,270,4.0,11.0,41,0.00,,,0.00,meteohub,2013-02-28 19:19:00,
2013-02-28 14:21:00,31.6,10.6,29.81,NW,315,6.0,11.0,41,0.00,,,0.00,meteohub,2013-02-28 19:21:00,
2013-02-28 14:24:00,31.6,10.6,29.81,WSW,248,8.0,11.0,41,0.00,,,0.00,meteohub,2013-02-28 19:24:00,
2013-02-28 14:25:00,31.5,10.4,29.81,West,270,6.0,11.0,41,0.00,,,0.00,meteohub,2013-02-28 19:25:00,
2013-02-28 14:26:00,31.5,10.4,29.81,WSW,248,5.0,9.0,41,0.00,,,0.00,meteohub,2013-02-28 19:26:00,
2013-02-28 14:30:00,31.3,10.2,29.81,West,270,9.0,9.0,41,0.00,,,0.00,meteohub,2013-02-28 19:30:00,
2013-02-28 14:31:00,31.3,10.2,29.81,West,270,9.0,9.0,41,0.00,,,0.00,meteohub,2013-02-28 19:31:00,
2013-02-28 14:32:00,31.1,10.2,29.81,NNW,338,6.0,9.0,41,0.00,,,0.00,meteohub,2013-02-28 19:32:00,
2013-02-28 14:35:00,31.3,10.2,29.81,WSW,248,3.0,9.0,41,0.00,,,0.00,meteohub,2013-02-28 19:35:00,
2013-02-28 14:36:00,31.3,10.2,29.81,South,180,8.0,13.0,41,0.00,,,0.00,meteohub,2013-02-28 19:36:00,
2013-02-28 14:37:00,31.5,10.4,29.80,South,180,7.0,13.0,41,0.00,,,0.00,meteohub,2013-02-28 19:37:00,
2013-02-28 14:41:00,31.8,11.3,29.81,WSW,248,4.0,13.0,42,0.00,,,0.00,meteohub,2013-02-28 19:41:00,
2013-02-28 14:42:00,31.8,11.3,29.81,WSW,248,5.0,13.0,42,0.00,,,0.00,meteohub,2013-02-28 19:42:00,
2013-02-28 14:43:00,31.8,11.3,29.81,WSW,248,5.0,13.0,42,0.00,,,0.00,meteohub,2013-02-28 19:43:00,
2013-02-28 14:46:00,31.8,11.3,29.81,West,270,3.0,9.0,42,0.00,,,0.00,meteohub,2013-02-28 19:46:00,
2013-02-28 14:47:00,31.6,11.1,29.81,WSW,248,5.0,9.0,42,0.00,,,0.00,meteohub,2013-02-28 19:47:00,
2013-02-28 14:48:00,31.6,11.1,29.81,South,180,4.0,9.0,42,0.00,,,0.00,meteohub,2013-02-28 19:48:00,
2013-02-28 14:51:00,31.5,10.9,29.81,West,270,10.0,10.0,42,0.00,,,0.00,meteohub,2013-02-28 19:51:00,
2013-02-28 14:53:00,31.3,10.8,29.81,West,270,7.0,8.0,42,0.00,,,0.00,meteohub,2013-02-28 19:53:00,
2013-02-28 14:58:00,31.1,10.8,29.81,WSW,248,7.0,12.0,42,0.00,,,0.00,meteohub,2013-02-28 19:58:00,
2013-02-28 14:59:00,31.3,10.8,29.81,West,270,4.0,12.0,42,0.00,,,0.00,meteohub,2013-02-28 19:59:00,
2013-02-28 15:03:00,31.3,10.8,29.81,West,270,5.0,12.0,42,0.00,,,0.00,meteohub,2013-02-28 20:03:00,
2013-02-28 15:04:00,31.3,10.8,29.81,WSW,248,7.0,12.0,42,0.00,,,0.00,meteohub,2013-02-28 20:04:00,
2013-02-28 15:09:00,31.5,11.5,29.81,NW,315,6.0,12.0,43,0.00,,,0.00,meteohub,2013-02-28 20:09:00,
2013-02-28 15:10:00,31.5,11.5,29.81,NW,315,6.0,12.0,43,0.00,,,0.00,meteohub,2013-02-28 20:10:00,
2013-02-28 15:14:00,31.5,11.5,29.81,South,180,4.0,8.0,43,0.00,,,0.00,meteohub,2013-02-28 20:14:00,
2013-02-28 15:15:00,31.5,11.5,29.81,West,270,3.0,8.0,43,0.00,,,0.00,meteohub,2013-02-28 20:15:00,
2013-02-28 15:16:00,31.5,11.5,29.81,West,270,3.0,8.0,43,0.00,,,0.00,meteohub,2013-02-28 20:16:00,
2013-02-28 15:19:00,31.5,11.5,29.81,WSW,248,3.0,8.0,43,0.00,,,0.00,meteohub,2013-02-28 20:19:00,
2013-02-28 15:20:00,31.5,11.5,29.81,WSW,248,3.0,8.0,43,0.00,,,0.00,meteohub,2013-02-28 20:20:00,
2013-02-28 15:21:00,31.5,11.5,29.81,West,270,3.0,6.0,43,0.00,,,0.00,meteohub,2013-02-28 20:21:00,
2013-02-28 15:25:00,31.3,11.3,29.81,South,180,4.0,6.0,43,0.00,,,0.00,meteohub,2013-02-28 20:25:00,
2013-02-28 15:26:00,31.3,11.8,29.82,WSW,248,4.0,8.0,44,0.00,,,0.00,meteohub,2013-02-28 20:26:00,
2013-02-28 15:30:00,31.1,11.7,29.82,West,270,11.0,11.0,44,0.00,,,0.00,meteohub,2013-02-28 20:30:00,
2013-02-28 15:31:00,31.1,11.7,29.82,WSW,248,9.0,13.0,44,0.00,,,0.00,meteohub,2013-02-28 20:31:00,
2013-02-28 15:32:00,31.1,11.7,29.82,WSW,248,9.0,13.0,44,0.00,,,0.00,meteohub,2013-02-28 20:32:00,
2013-02-28 15:35:00,30.9,11.5,29.82,WSW,248,8.0,13.0,44,0.00,,,0.00,meteohub,2013-02-28 20:35:00,
2013-02-28 15:37:00,30.9,11.5,29.82,WSW,248,4.0,13.0,44,0.00,,,0.00,meteohub,2013-02-28 20:37:00,
2013-02-28 15:41:00,30.7,11.5,29.82,NW,315,2.0,13.0,44,0.00,,,0.00,meteohub,2013-02-28 20:41:00,
2013-02-28 15:42:00,30.7,11.5,29.82,WSW,248,10.0,13.0,44,0.00,,,0.00,meteohub,2013-02-28 20:42:00,
2013-02-28 15:46:00,30.7,11.5,29.82,West,270,2.0,12.0,44,0.00,,,0.00,meteohub,2013-02-28 20:46:00,
2013-02-28 15:47:00,30.7,11.5,29.82,West,270,8.0,12.0,44,0.00,,,0.00,meteohub,2013-02-28 20:47:00,
2013-02-28 15:48:00,30.7,11.5,29.82,WSW,248,8.0,12.0,44,0.00,,,0.00,meteohub,2013-02-28 20:48:00,
2013-02-28 15:49:00,30.7,11.5,29.82,SW,225,11.0,12.0,44,0.00,,,0.00,meteohub,2013-02-28 20:49:00,
2013-02-28 15:52:00,30.6,11.3,29.82,WSW,248,8.0,11.0,44,0.00,,,0.00,meteohub,2013-02-28 20:52:00,
2013-02-28 15:53:00,30.6,11.3,29.82,West,270,5.0,11.0,44,0.00,,,0.00,meteohub,2013-02-28 20:53:00,
2013-02-28 15:54:00,30.6,11.3,29.82,West,270,5.0,11.0,44,0.00,,,0.00,meteohub,2013-02-28 20:54:00,
2013-02-28 15:57:00,30.6,11.3,29.82,NW,315,10.0,11.0,44,0.00,,,0.00,meteohub,2013-02-28 20:57:00,
2013-02-28 15:59:00,30.6,11.7,29.82,West,270,6.0,11.0,45,0.00,,,0.00,meteohub,2013-02-28 20:59:00,
2013-02-28 16:02:00,30.6,11.7,29.82,WSW,248,3.0,11.0,45,0.00,,,0.00,meteohub,2013-02-28 21:02:00,
2013-02-28 16:03:00,30.6,11.7,29.82,West,270,3.0,11.0,45,0.00,,,0.00,meteohub,2013-02-28 21:03:00,
2013-02-28 16:04:00,30.6,11.7,29.82,West,270,4.0,11.0,45,0.00,,,0.00,meteohub,2013-02-28 21:04:00,
2013-02-28 16:05:00,30.6,11.7,29.82,West,270,4.0,11.0,45,0.00,,,0.00,meteohub,2013-02-28 21:05:00,
2013-02-28 16:08:00,30.6,11.7,29.83,WSW,248,5.0,10.0,45,0.00,,,0.00,meteohub,2013-02-28 21:08:00,
2013-02-28 16:10:00,30.6,11.7,29.83,West,270,8.0,10.0,45,0.00,,,0.00,meteohub,2013-02-28 21:10:00,
2013-02-28 16:11:00,30.6,11.7,29.83,West,270,8.0,10.0,45,0.00,,,0.00,meteohub,2013-02-28 21:11:00,
2013-02-28 16:13:00,30.4,11.7,29.83,West,270,9.0,10.0,45,0.00,,,0.00,meteohub,2013-02-28 21:13:00,
2013-02-28 16:16:00,30.4,11.7,29.82,NE,45,4.0,11.0,45,0.00,,,0.00,meteohub,2013-02-28 21:16:00,
2013-02-28 16:18:00,30.4,12.0,29.82,West,270,7.0,11.0,46,0.00,,,0.00,meteohub,2013-02-28 21:18:00,
2013-02-28 16:21:00,30.4,12.0,29.82,WSW,248,8.0,11.0,46,0.00,,,0.00,meteohub,2013-02-28 21:21:00,
2013-02-28 16:23:00,30.4,12.0,29.82,NW,315,8.0,11.0,46,0.00,,,0.00,meteohub,2013-02-28 21:23:00,
2013-02-28 16:24:00,30.4,12.0,29.82,NW,315,8.0,11.0,46,0.00,,,0.00,meteohub,2013-02-28 21:24:00,
2013-02-28 16:26:00,30.4,12.0,29.82,WSW,248,5.0,11.0,46,0.00,,,0.00,meteohub,2013-02-28 21:26:00,
2013-02-28 16:27:00,30.4,12.0,29.82,WSW,248,5.0,11.0,46,0.00,,,0.00,meteohub,2013-02-28 21:27:00,
2013-02-28 16:29:00,30.4,12.0,29.82,West,270,8.0,11.0,46,0.00,,,0.00,meteohub,2013-02-28 21:29:00,
2013-02-28 16:31:00,30.4,12.0,29.83,WSW,248,4.0,11.0,46,0.00,,,0.00,meteohub,2013-02-28 21:31:00,
2013-02-28 16:33:00,30.4,12.0,29.83,WSW,248,6.0,11.0,46,0.00,,,0.00,meteohub,2013-02-28 21:33:00,
2013-02-28 16:34:00,30.4,12.6,29.83,WSW,248,3.0,11.0,47,0.00,,,0.00,meteohub,2013-02-28 21:34:00,
2013-02-28 16:36:00,30.2,12.4,29.82,West,270,8.0,8.0,47,0.00,,,0.00,meteohub,2013-02-28 21:36:00,
2013-02-28 16:39:00,30.2,12.4,29.82,WSW,248,7.0,8.0,47,0.00,,,0.00,meteohub,2013-02-28 21:39:00,
2013-02-28 16:41:00,30.2,12.4,29.83,WSW,248,1.0,8.0,47,0.00,,,0.00,meteohub,2013-02-28 21:41:00,
2013-02-28 16:45:00,30.2,12.4,29.83,WSW,248,8.0,8.0,47,0.00,,,0.00,meteohub,2013-02-28 21:45:00,
2013-02-28 16:46:00,30.2,12.4,29.83,WSW,248,8.0,11.0,47,0.00,,,0.00,meteohub,2013-02-28 21:46:00,
2013-02-28 16:50:00,30.2,12.4,29.83,North,0,7.0,11.0,47,0.00,,,0.00,meteohub,2013-02-28 21:50:00,
2013-02-28 16:51:00,30.2,12.4,29.83,WSW,248,4.0,11.0,47,0.00,,,0.00,meteohub,2013-02-28 21:51:00,
2013-02-28 16:53:00,30.2,12.4,29.83,WSW,248,3.0,11.0,47,0.00,,,0.00,meteohub,2013-02-28 21:53:00,
2013-02-28 16:56:00,30.2,12.4,29.83,WSW,248,4.0,11.0,47,0.00,,,0.00,meteohub,2013-02-28 21:56:00,
2013-02-28 16:58:00,30.4,13.1,29.83,West,270,2.0,11.0,48,0.00,,,0.00,meteohub,2013-02-28 21:58:00,
2013-02-28 17:02:00,30.2,12.4,29.83,East,90,9.0,9.0,47,0.00,,,0.00,meteohub,2013-02-28 22:02:00,
2013-02-28 17:03:00,30.2,12.9,29.83,WSW,248,2.0,8.0,48,0.00,,,0.00,meteohub,2013-02-28 22:03:00,
2013-02-28 17:07:00,30.2,12.9,29.83,West,270,7.0,9.0,48,0.00,,,0.00,meteohub,2013-02-28 22:07:00,
2013-02-28 17:08:00,30.2,12.9,29.83,West,270,7.0,9.0,48,0.00,,,0.00,meteohub,2013-02-28 22:08:00,
2013-02-28 17:09:00,30.2,12.9,29.83,North,0,3.0,9.0,48,0.00,,,0.00,meteohub,2013-02-28 22:09:00,
2013-02-28 17:13:00,30.2,12.9,29.83,West,270,3.0,9.0,48,0.00,,,0.00,meteohub,2013-02-28 22:13:00,
2013-02-28 17:14:00,30.2,12.9,29.83,NW,315,2.0,9.0,48,0.00,,,0.00,meteohub,2013-02-28 22:14:00,
2013-02-28 17:15:00,30.2,12.9,29.83,WSW,248,2.0,9.0,48,0.00,,,0.00,meteohub,2013-02-28 22:15:00,
2013-02-28 17:18:00,30.2,12.9,29.84,WSW,248,5.0,9.0,48,0.00,,,0.00,meteohub,2013-02-28 22:18:00,
2013-02-28 17:19:00,30.2,12.9,29.83,West,270,5.0,9.0,48,0.00,,,0.00,meteohub,2013-02-28 22:19:00,
2013-02-28 17:20:00,30.2,12.9,29.84,SSW,203,2.0,9.0,48,0.00,,,0.00,meteohub,2013-02-28 22:20:00,
2013-02-28 17:21:00,30.2,12.9,29.84,West,270,2.0,8.0,48,0.00,,,0.00,meteohub,2013-02-28 22:21:00,
2013-02-28 17:24:00,30.2,12.9,29.84,NW,315,8.0,8.0,48,0.00,,,0.00,meteohub,2013-02-28 22:24:00,
2013-02-28 17:25:00,30.2,12.9,29.84,West,270,8.0,8.0,48,0.00,,,0.00,meteohub,2013-02-28 22:25:00,
2013-02-28 17:26:00,30.2,12.9,29.84,West,270,6.0,8.0,48,0.00,,,0.00,meteohub,2013-02-28 22:26:00,
2013-02-28 17:29:00,30.2,12.9,29.84,West,270,8.0,8.0,48,0.00,,,0.00,meteohub,2013-02-28 22:29:00,
2013-02-28 17:30:00,30.2,12.9,29.84,West,270,8.0,8.0,48,0.00,,,0.00,meteohub,2013-02-28 22:30:00,
2013-02-28 17:31:00,30.2,12.9,29.84,West,270,8.0,8.0,48,0.00,,,0.00,meteohub,2013-02-28 22:31:00,
2013-02-28 17:34:00,30.2,12.9,29.84,WSW,248,3.0,8.0,48,0.00,,,0.00,meteohub,2013-02-28 22:34:00,
2013-02-28 17:35:00,30.2,12.9,29.84,WSW,248,3.0,8.0,48,0.00,,,0.00,meteohub,2013-02-28 22:35:00,
2013-02-28 17:36:00,30.2,12.9,29.83,WSW,248,3.0,8.0,48,0.00,,,0.00,meteohub,2013-02-28 22:36:00,
2013-02-28 17:40:00,30.2,13.3,29.84,WSW,248,7.0,8.0,49,0.00,,,0.00,meteohub,2013-02-28 22:40:00,
2013-02-28 17:41:00,30.2,13.3,29.84,NW,315,4.0,8.0,49,0.00,,,0.00,meteohub,2013-02-28 22:41:00,
2013-02-28 17:42:00,30.2,13.3,29.84,West,270,7.0,8.0,49,0.00,,,0.00,meteohub,2013-02-28 22:42:00,
2013-02-28 17:45:00,30.2,13.3,29.84,West,270,5.0,8.0,49,0.00,,,0.00,meteohub,2013-02-28 22:45:00,
2013-02-28 17:47:00,30.2,13.3,29.85,NW,315,8.0,9.0,49,0.00,,,0.00,meteohub,2013-02-28 22:47:00,
2013-02-28 17:48:00,30.2,13.3,29.85,West,270,6.0,9.0,49,0.00,,,0.00,meteohub,2013-02-28 22:48:00,
2013-02-28 17:51:00,30.2,13.3,29.85,West,270,4.0,9.0,49,0.00,,,0.00,meteohub,2013-02-28 22:51:00,
2013-02-28 17:52:00,30.2,13.3,29.85,South,180,2.0,9.0,49,0.00,,,0.00,meteohub,2013-02-28 22:52:00,
2013-02-28 17:53:00,30.2,13.3,29.85,West,270,4.0,9.0,49,0.00,,,0.00,meteohub,2013-02-28 22:53:00,
2013-02-28 17:54:00,30.2,13.3,29.85,West,270,9.0,9.0,49,0.00,,,0.00,meteohub,2013-02-28 22:54:00,
2013-02-28 17:56:00,30.2,13.3,29.85,NW,315,4.0,9.0,49,0.00,,,0.00,meteohub,2013-02-28 22:56:00,
2013-02-28 17:58:00,30.2,13.3,29.85,West,270,6.0,9.0,49,0.00,,,0.00,meteohub,2013-02-28 22:58:00,
2013-02-28 18:00:00,30.2,13.3,29.85,West,270,4.0,13.0,49,0.00,,,0.00,meteohub,2013-02-28 23:00:00,
2013-02-28 18:01:00,30.2,13.3,29.85,NW,315,14.0,14.0,49,0.00,,,0.00,meteohub,2013-02-28 23:01:00,
2013-02-28 18:04:00,30.2,13.3,29.85,West,270,6.0,13.0,49,0.00,,,0.00,meteohub,2013-02-28 23:04:00,
2013-02-28 18:06:00,30.2,13.3,29.85,WSW,248,2.0,15.0,49,0.00,,,0.00,meteohub,2013-02-28 23:06:00,
2013-02-28 18:07:00,30.2,13.3,29.86,East,90,2.0,15.0,49,0.00,,,0.00,meteohub,2013-02-28 23:07:00,
2013-02-28 18:09:00,30.2,13.3,29.85,NNW,338,9.0,15.0,49,0.00,,,0.00,meteohub,2013-02-28 23:09:00,
2013-02-28 18:11:00,30.2,13.3,29.86,NW,315,11.0,15.0,49,0.00,,,0.00,meteohub,2013-02-28 23:11:00,
2013-02-28 18:12:00,30.2,13.3,29.86,NW,315,11.0,15.0,49,0.00,,,0.00,meteohub,2013-02-28 23:12:00,
2013-02-28 18:15:00,30.2,13.3,29.86,West,270,11.0,15.0,49,0.00,,,0.00,meteohub,2013-02-28 23:15:00,
2013-02-28 18:17:00,30.2,13.3,29.86,NW,315,6.0,15.0,49,0.00,,,0.00,meteohub,2013-02-28 23:17:00,
2013-02-28 18:18:00,30.2,13.3,29.86,WSW,248,5.0,15.0,49,0.00,,,0.00,meteohub,2013-02-28 23:18:00,
2013-02-28 18:20:00,30.2,13.3,29.86,WSW,248,5.0,11.0,49,0.00,,,0.00,meteohub,2013-02-28 23:20:00,
2013-02-28 18:22:00,30.2,13.8,29.86,WSW,248,5.0,11.0,50,0.00,,,0.00,meteohub,2013-02-28 23:22:00,
2013-02-28 18:23:00,30.2,13.8,29.86,WSW,248,11.0,11.0,50,0.00,,,0.00,meteohub,2013-02-28 23:23:00,
2013-02-28 18:25:00,30.2,13.8,29.86,West,270,7.0,11.0,50,0.00,,,0.00,meteohub,2013-02-28 23:25:00,
2013-02-28 18:28:00,30.4,14.0,29.87,NW,315,2.0,11.0,50,0.00,,,0.00,meteohub,2013-02-28 23:28:00,
2013-02-28 18:29:00,30.4,14.0,29.87,NW,315,2.0,11.0,50,0.00,,,0.00,meteohub,2013-02-28 23:29:00,
2013-02-28 18:32:00,30.2,13.8,29.86,West,270,3.0,11.0,50,0.00,,,0.00,meteohub,2013-02-28 23:32:00,
2013-02-28 18:34:00,30.4,14.0,29.87,North,0,4.0,11.0,50,0.00,,,0.00,meteohub,2013-02-28 23:34:00,
2013-02-28 18:36:00,30.4,14.0,29.87,NW,315,6.0,11.0,50,0.00,,,0.00,meteohub,2013-02-28 23:36:00,
2013-02-28 18:37:00,30.4,14.0,29.87,North,0,7.0,11.0,50,0.00,,,0.00,meteohub,2013-02-28 23:37:00,
2013-02-28 18:40:00,30.4,14.0,29.86,NW,315,6.0,11.0,50,0.00,,,0.00,meteohub,2013-02-28 23:40:00,
2013-02-28 18:41:00,30.4,14.0,29.87,West,270,5.0,11.0,50,0.00,,,0.00,meteohub,2013-02-28 23:41:00,
2013-02-28 18:42:00,30.4,14.0,29.87,West,270,5.0,11.0,50,0.00,,,0.00,meteohub,2013-02-28 23:42:00,
2013-02-28 18:45:00,30.4,14.0,29.87,West,270,7.0,11.0,50,0.00,,,0.00,meteohub,2013-02-28 23:45:00,
2013-02-28 18:46:00,30.4,14.0,29.86,West,270,7.0,11.0,50,0.00,,,0.00,meteohub,2013-02-28 23:46:00,
2013-02-28 18:47:00,30.4,14.0,29.87,WSW,248,5.0,11.0,50,0.00,,,0.00,meteohub,2013-02-28 23:47:00,
2013-02-28 18:50:00,30.6,14.2,29.87,West,270,8.0,8.0,50,0.00,,,0.00,meteohub,2013-02-28 23:50:00,
2013-02-28 18:52:00,30.6,14.2,29.87,NW,315,2.0,8.0,50,0.00,,,0.00,meteohub,2013-02-28 23:52:00,
2013-02-28 18:53:00,30.6,14.2,29.87,WSW,248,4.0,8.0,50,0.00,,,0.00,meteohub,2013-02-28 23:53:00,
2013-02-28 18:56:00,30.6,14.2,29.87,NW,315,8.0,8.0,50,0.00,,,0.00,meteohub,2013-02-28 23:56:00,
2013-02-28 18:57:00,30.6,14.2,29.87,SSW,203,5.0,8.0,50,0.00,,,0.00,meteohub,2013-02-28 23:57:00,
2013-02-28 18:58:00,30.6,14.2,29.87,SSW,203,5.0,8.0,50,0.00,,,0.00,meteohub,2013-02-28 23:58:00,
2013-02-28 19:01:00,30.6,14.2,29.87,WSW,248,5.0,12.0,50,0.00,,,0.00,meteohub,2013-03-01 00:01:00,
2013-02-28 19:02:00,30.6,14.5,29.87,WSW,248,8.0,12.0,51,0.00,,,0.00,meteohub,2013-03-01 00:02:00,
2013-02-28 19:03:00,30.6,14.2,29.88,NW,315,6.0,12.0,50,0.00,,,0.00,meteohub,2013-03-01 00:03:00,
2013-02-28 19:06:00,30.6,14.5,29.87,NW,315,2.0,12.0,51,0.00,,,0.00,meteohub,2013-03-01 00:06:00,
2013-02-28 19:08:00,30.6,14.5,29.88,West,270,8.0,12.0,51,0.00,,,0.00,meteohub,2013-03-01 00:08:00,
2013-02-28 19:09:00,30.6,14.5,29.88,West,270,2.0,12.0,51,0.00,,,0.00,meteohub,2013-03-01 00:09:00,
2013-02-28 19:11:00,30.6,14.5,29.88,West,270,5.0,14.0,51,0.00,,,0.00,meteohub,2013-03-01 00:11:00,
2013-02-28 19:13:00,30.6,14.5,29.88,WNW,293,8.0,14.0,51,0.00,,,0.00,meteohub,2013-03-01 00:13:00,
2013-02-28 19:14:00,30.6,14.5,29.88,NE,45,5.0,14.0,51,0.00,,,0.00,meteohub,2013-03-01 00:14:00,
2013-02-28 19:16:00,30.6,14.5,29.88,West,270,4.0,14.0,51,0.00,,,0.00,meteohub,2013-03-01 00:16:00,
2013-02-28 19:18:00,30.6,14.5,29.88,WSW,248,7.0,14.0,51,0.00,,,0.00,meteohub,2013-03-01 00:18:00,
2013-02-28 19:19:00,30.6,14.5,29.88,ESE,113,5.0,14.0,51,0.00,,,0.00,meteohub,2013-03-01 00:19:00,
2013-02-28 19:22:00,30.6,14.5,29.88,NW,315,4.0,14.0,51,0.00,,,0.00,meteohub,2013-03-01 00:22:00,
2013-02-28 19:23:00,30.6,14.5,29.88,NW,315,4.0,14.0,51,0.00,,,0.00,meteohub,2013-03-01 00:23:00,
2013-02-28 19:24:00,30.6,14.5,29.88,NW,315,3.0,14.0,51,0.00,,,0.00,meteohub,2013-03-01 00:24:00,
2013-02-28 19:27:00,30.6,14.5,29.89,WSW,248,4.0,14.0,51,0.00,,,0.00,meteohub,2013-03-01 00:27:00,
2013-02-28 19:28:00,30.6,14.5,29.89,WSW,248,4.0,14.0,51,0.00,,,0.00,meteohub,2013-03-01 00:28:00,
2013-02-28 19:30:00,30.6,14.5,29.88,West,270,2.0,14.0,51,0.00,,,0.00,meteohub,2013-03-01 00:30:00,
2013-02-28 19:33:00,30.6,14.5,29.89,NW,315,6.0,8.0,51,0.00,,,0.00,meteohub,2013-03-01 00:33:00,
2013-02-28 19:34:00,30.6,14.5,29.89,North,0,5.0,8.0,51,0.00,,,0.00,meteohub,2013-03-01 00:34:00,
2013-02-28 19:35:00,30.6,14.5,29.89,WSW,248,4.0,8.0,51,0.00,,,0.00,meteohub,2013-03-01 00:35:00,
2013-02-28 19:38:00,30.6,14.5,29.89,NW,315,4.0,7.0,51,0.00,,,0.00,meteohub,2013-03-01 00:38:00,
2013-02-28 19:39:00,30.6,14.5,29.90,WSW,248,2.0,7.0,51,0.00,,,0.00,meteohub,2013-03-01 00:39:00,
2013-02-28 19:42:00,30.6,15.1,29.89,North,0,2.0,8.0,52,0.00,,,0.00,meteohub,2013-03-01 00:42:00,
2013-02-28 19:44:00,30.6,15.1,29.89,West,270,2.0,8.0,52,0.00,,,0.00,meteohub,2013-03-01 00:44:00,
2013-02-28 19:45:00,30.6,15.1,29.89,NW,315,5.0,8.0,52,0.00,,,0.00,meteohub,2013-03-01 00:45:00,
2013-02-28 19:49:00,30.6,15.1,29.89,North,0,2.0,8.0,52,0.00,,,0.00,meteohub,2013-03-01 00:49:00,
2013-02-28 19:50:00,30.6,15.1,29.89,West,270,4.0,8.0,52,0.00,,,0.00,meteohub,2013-03-01 00:50:00,
2013-02-28 19:51:00,30.6,15.1,29.90,NW,315,2.0,8.0,52,0.00,,,0.00,meteohub,2013-03-01 00:51:00,
2013-02-28 19:54:00,30.6,15.1,29.90,West,270,4.0,8.0,52,0.00,,,0.00,meteohub,2013-03-01 00:54:00,
2013-02-28 19:55:00,30.6,15.1,29.90,West,270,2.0,8.0,52,0.00,,,0.00,meteohub,2013-03-01 00:55:00,
2013-02-28 19:56:00,30.6,15.1,29.90,West,270,2.0,5.0,52,0.00,,,0.00,meteohub,2013-03-01 00:56:00,
2013-02-28 19:58:00,30.6,15.1,29.90,NE,45,5.0,5.0,52,0.00,,,0.00,meteohub,2013-03-01 00:58:00,
2013-02-28 19:59:00,30.6,15.1,29.90,West,270,4.0,5.0,52,0.00,,,0.00,meteohub,2013-03-01 00:59:00,
2013-02-28 20:01:00,30.6,15.1,29.90,WSW,248,4.0,5.0,52,0.00,,,0.00,meteohub,2013-03-01 01:01:00,
2013-02-28 20:03:00,30.6,15.1,29.89,WSW,248,4.0,5.0,52,0.00,,,0.00,meteohub,2013-03-01 01:03:00,
2013-02-28 20:04:00,30.6,15.1,29.90,WSW,248,4.0,5.0,52,0.00,,,0.00,meteohub,2013-03-01 01:04:00,
2013-02-28 20:06:00,30.6,15.1,29.90,North,0,4.0,8.0,52,0.00,,,0.00,meteohub,2013-03-01 01:06:00,
2013-02-28 20:07:00,30.6,15.1,29.89,NW,315,6.0,8.0,52,0.00,,,0.00,meteohub,2013-03-01 01:07:00,
2013-02-28 20:10:00,30.6,15.1,29.90,West,270,6.0,8.0,52,0.00,,,0.00,meteohub,2013-03-01 01:10:00,
2013-02-28 20:11:00,30.6,15.1,29.90,NW,315,8.0,8.0,52,0.00,,,0.00,meteohub,2013-03-01 01:11:00,
2013-02-28 20:12:00,30.6,15.1,29.90,NW,315,8.0,8.0,52,0.00,,,0.00,meteohub,2013-03-01 01:12:00,
2013-02-28 20:15:00,30.6,15.1,29.90,East,90,4.0,8.0,52,0.00,,,0.00,meteohub,2013-03-01 01:15:00,
2013-02-28 20:17:00,30.6,15.1,29.90,WSW,248,6.0,8.0,52,0.00,,,0.00,meteohub,2013-03-01 01:17:00,
2013-02-28 20:20:00,30.6,15.1,29.90,NW,315,2.0,8.0,52,0.00,,,0.00,meteohub,2013-03-01 01:20:00,
2013-02-28 20:22:00,30.6,15.1,29.90,North,0,3.0,8.0,52,0.00,,,0.00,meteohub,2013-03-01 01:22:00,
2013-02-28 20:26:00,30.6,15.1,29.90,NW,315,10.0,10.0,52,0.00,,,0.00,meteohub,2013-03-01 01:26:00,
2013-02-28 20:27:00,30.6,15.1,29.90,West,270,7.0,8.0,52,0.00,,,0.00,meteohub,2013-03-01 01:27:00,
2013-02-28 20:28:00,30.6,15.1,29.90,NW,315,8.0,8.0,52,0.00,,,0.00,meteohub,2013-03-01 01:28:00,
2013-02-28 20:32:00,30.6,15.1,29.90,WSW,248,4.0,10.0,52,0.00,,,0.00,meteohub,2013-03-01 01:32:00,
2013-02-28 20:33:00,30.4,14.9,29.91,NE,45,6.0,10.0,52,0.00,,,0.00,meteohub,2013-03-01 01:33:00,
2013-02-28 20:37:00,30.4,14.9,29.90,West,270,11.0,12.0,52,0.00,,,0.00,meteohub,2013-03-01 01:37:00,
2013-02-28 20:38:00,30.4,14.9,29.90,West,270,11.0,12.0,52,0.00,,,0.00,meteohub,2013-03-01 01:38:00,
2013-02-28 20:39:00,30.4,14.9,29.90,NW,315,8.0,12.0,52,0.00,,,0.00,meteohub,2013-03-01 01:39:00,
2013-02-28 20:42:00,30.4,14.9,29.91,NE,45,4.0,12.0,52,0.00,,,0.00,meteohub,2013-03-01 01:42:00,
2013-02-28 20:43:00,30.4,15.3,29.90,North,0,4.0,12.0,53,0.00,,,0.00,meteohub,2013-03-01 01:43:00,
2013-02-28 20:44:00,30.4,14.9,29.91,North,0,2.0,12.0,52,0.00,,,0.00,meteohub,2013-03-01 01:44:00,
2013-02-28 20:45:00,30.4,14.9,29.91,North,0,2.0,12.0,52,0.00,,,0.00,meteohub,2013-03-01 01:45:00,
2013-02-28 20:48:00,30.4,15.3,29.91,WSW,248,2.0,12.0,53,0.00,,,0.00,meteohub,2013-03-01 01:48:00,
2013-02-28 20:50:00,30.4,14.9,29.91,NW,315,4.0,12.0,52,0.00,,,0.00,meteohub,2013-03-01 01:50:00,
2013-02-28 20:51:00,30.4,15.3,29.91,NW,315,2.0,11.0,53,0.00,,,0.00,meteohub,2013-03-01 01:51:00,
2013-02-28 20:53:00,30.4,14.9,29.91,East,90,9.0,11.0,52,0.00,,,0.00,meteohub,2013-03-01 01:53:00,
2013-02-28 20:54:00,30.4,15.3,29.91,West,270,5.0,11.0,53,0.00,,,0.00,meteohub,2013-03-01 01:54:00,
2013-02-28 20:55:00,30.4,15.3,29.91,WSW,248,4.0,11.0,53,0.00,,,0.00,meteohub,2013-03-01 01:55:00,
2013-02-28 20:56:00,30.4,15.3,29.91,WSW,248,7.0,11.0,53,0.00,,,0.00,meteohub,2013-03-01 01:56:00,
2013-02-28 20:59:00,30.4,15.3,29.92,WSW,248,2.0,11.0,53,0.00,,,0.00,meteohub,2013-03-01 01:59:00,
2013-02-28 21:00:00,30.4,15.3,29.92,NW,315,4.0,9.0,53,0.00,,,0.00,meteohub,2013-03-01 02:00:00,
2013-02-28 21:02:00,30.4,15.3,29.92,NW,315,10.0,10.0,53,0.00,,,0.00,meteohub,2013-03-01 02:02:00,
2013-02-28 21:04:00,30.2,15.1,29.92,North,0,6.0,9.0,53,0.00,,,0.00,meteohub,2013-03-01 02:04:00,
2013-02-28 21:06:00,30.4,15.3,29.92,NW,315,4.0,10.0,53,0.00,,,0.00,meteohub,2013-03-01 02:06:00,
2013-02-28 21:07:00,30.2,15.1,29.92,North,0,2.0,10.0,53,0.00,,,0.00,meteohub,2013-03-01 02:07:00,
2013-02-28 21:09:00,30.2,15.1,29.92,North,0,4.0,10.0,53,0.00,,,0.00,meteohub,2013-03-01 02:09:00,
2013-02-28 21:10:00,30.4,15.3,29.92,NW,315,4.0,10.0,53,0.00,,,0.00,meteohub,2013-03-01 02:10:00,
2013-02-28 21:11:00,30.2,15.1,29.92,North,0,8.0,10.0,53,0.00,,,0.00,meteohub,2013-03-01 02:11:00,
2013-02-28 21:12:00,30.2,15.1,29.92,NW,315,8.0,10.0,53,0.00,,,0.00,meteohub,2013-03-01 02:12:00,
2013-02-28 21:15:00,30.2,15.1,29.92,WSW,248,3.0,10.0,53,0.00,,,0.00,meteohub,2013-03-01 02:15:00,
2013-02-28 21:16:00,30.2,15.1,29.92,WSW,248,3.0,10.0,53,0.00,,,0.00,meteohub,2013-03-01 02:16:00,
2013-02-28 21:17:00,30.2,15.1,29.92,WSW,248,3.0,10.0,53,0.00,,,0.00,meteohub,2013-03-01 02:17:00,
2013-02-28 21:20:00,30.2,15.1,29.93,WSW,248,4.0,9.0,53,0.00,,,0.00,meteohub,2013-03-01 02:20:00,
2013-02-28 21:21:00,30.2,15.1,29.92,West,270,4.0,9.0,53,0.00,,,0.00,meteohub,2013-03-01 02:21:00,
2013-02-28 21:23:00,30.2,15.1,29.92,WSW,248,5.0,9.0,53,0.00,,,0.00,meteohub,2013-03-01 02:23:00,
2013-02-28 21:26:00,30.2,15.1,29.92,NW,315,10.0,10.0,53,0.00,,,0.00,meteohub,2013-03-01 02:26:00,
2013-02-28 21:27:00,30.2,15.1,29.92,NW,315,5.0,9.0,53,0.00,,,0.00,meteohub,2013-03-01 02:27:00,
2013-02-28 21:28:00,30.2,15.1,29.92,NW,315,4.0,9.0,53,0.00,,,0.00,meteohub,2013-03-01 02:28:00,
2013-02-28 21:32:00,30.2,15.1,29.92,NW,315,4.0,10.0,53,0.00,,,0.00,meteohub,2013-03-01 02:32:00,
2013-02-28 21:34:00,30.0,14.9,29.92,WSW,248,7.0,10.0,53,0.00,,,0.00,meteohub,2013-03-01 02:34:00,
2013-02-28 21:35:00,30.0,14.9,29.92,NW,315,8.0,10.0,53,0.00,,,0.00,meteohub,2013-03-01 02:35:00,
2013-02-28 21:37:00,30.0,14.9,29.92,South,180,7.0,10.0,53,0.00,,,0.00,meteohub,2013-03-01 02:37:00,
2013-02-28 21:38:00,30.0,14.9,29.92,WNW,293,8.0,10.0,53,0.00,,,0.00,meteohub,2013-03-01 02:38:00,
2013-02-28 21:39:00,30.0,14.9,29.92,West,270,5.0,10.0,53,0.00,,,0.00,meteohub,2013-03-01 02:39:00,
2013-02-28 21:40:00,30.0,14.9,29.92,NW,315,2.0,10.0,53,0.00,,,0.00,meteohub,2013-03-01 02:40:00,
2013-02-28 21:42:00,30.0,14.9,29.92,North,0,3.0,10.0,53,0.00,,,0.00,meteohub,2013-03-01 02:42:00,
2013-02-28 21:44:00,30.0,14.9,29.92,NW,315,4.0,10.0,53,0.00,,,0.00,meteohub,2013-03-01 02:44:00,
2013-02-28 21:45:00,30.0,14.9,29.92,NW,315,3.0,10.0,53,0.00,,,0.00,meteohub,2013-03-01 02:45:00,
2013-02-28 21:48:00,30.0,14.9,29.92,NW,315,4.0,10.0,53,0.00,,,0.00,meteohub,2013-03-01 02:48:00,
2013-02-28 21:50:00,30.0,14.9,29.92,West,270,2.0,10.0,53,0.00,,,0.00,meteohub,2013-03-01 02:50:00,
2013-02-28 21:51:00,30.0,14.9,29.93,North,0,4.0,8.0,53,0.00,,,0.00,meteohub,2013-03-01 02:51:00,
2013-02-28 21:53:00,30.0,14.9,29.92,West,270,4.0,8.0,53,0.00,,,0.00,meteohub,2013-03-01 02:53:00,
2013-02-28 21:55:00,30.2,15.1,29.92,North,0,2.0,8.0,53,0.00,,,0.00,meteohub,2013-03-01 02:55:00,
2013-02-28 21:56:00,30.2,15.1,29.93,North,0,7.0,8.0,53,0.00,,,0.00,meteohub,2013-03-01 02:56:00,
2013-02-28 21:59:00,30.2,15.1,29.92,WSW,248,2.0,8.0,53,0.00,,,0.00,meteohub,2013-03-01 02:59:00,
2013-02-28 22:01:00,30.2,15.1,29.92,NW,315,2.0,7.0,53,0.00,,,0.00,meteohub,2013-03-01 03:01:00,
2013-02-28 22:02:00,30.2,15.1,29.92,North,0,8.0,8.0,53,0.00,,,0.00,meteohub,2013-03-01 03:02:00,
2013-02-28 22:05:00,30.4,15.3,29.92,SE,135,4.0,8.0,53,0.00,,,0.00,meteohub,2013-03-01 03:05:00,
2013-02-28 22:06:00,30.2,15.1,29.92,West,270,4.0,8.0,53,0.00,,,0.00,meteohub,2013-03-01 03:06:00,
2013-02-28 22:07:00,30.2,15.1,29.92,NW,315,10.0,10.0,53,0.00,,,0.00,meteohub,2013-03-01 03:07:00,
2013-02-28 22:11:00,30.2,15.1,29.92,NW,315,2.0,15.0,53,0.00,,,0.00,meteohub,2013-03-01 03:11:00,
2013-02-28 22:12:00,30.2,15.1,29.93,North,0,5.0,15.0,53,0.00,,,0.00,meteohub,2013-03-01 03:12:00,
2013-02-28 22:13:00,30.2,15.1,29.93,North,0,5.0,15.0,53,0.00,,,0.00,meteohub,2013-03-01 03:13:00,
2013-02-28 22:16:00,30.2,15.1,29.92,West,270,8.0,15.0,53,0.00,,,0.00,meteohub,2013-03-01 03:16:00,
2013-02-28 22:18:00,30.2,15.1,29.92,NW,315,7.0,15.0,53,0.00,,,0.00,meteohub,2013-03-01 03:18:00,
2013-02-28 22:21:00,30.2,15.1,29.93,West,270,1.0,15.0,53,0.00,,,0.00,meteohub,2013-03-01 03:21:00,
2013-02-28 22:23:00,30.2,15.1,29.92,NW,315,8.0,15.0,53,0.00,,,0.00,meteohub,2013-03-01 03:23:00,
2013-02-28 22:27:00,30.2,15.1,29.92,WSW,248,4.0,8.0,53,0.00,,,0.00,meteohub,2013-03-01 03:27:00,
2013-02-28 22:28:00,30.2,15.1,29.92,NW,315,3.0,8.0,53,0.00,,,0.00,meteohub,2013-03-01 03:28:00,
2013-02-28 22:33:00,30.2,15.1,29.92,West,270,2.0,8.0,53,0.00,,,0.00,meteohub,2013-03-01 03:33:00,
2013-02-28 22:34:00,30.2,15.1,29.92,West,270,2.0,8.0,53,0.00,,,0.00,meteohub,2013-03-01 03:34:00,
2013-02-28 22:39:00,30.0,14.9,29.93,North,0,2.0,8.0,53,0.00,,,0.00,meteohub,2013-03-01 03:39:00,
2013-02-28 22:42:00,30.0,14.9,29.93,West,270,5.0,8.0,53,0.00,,,0.00,meteohub,2013-03-01 03:42:00,
2013-02-28 22:44:00,30.0,14.9,29.93,NW,315,5.0,8.0,53,0.00,,,0.00,meteohub,2013-03-01 03:44:00,
2013-02-28 22:45:00,30.0,14.9,29.92,NW,315,4.0,8.0,53,0.00,,,0.00,meteohub,2013-03-01 03:45:00,
2013-02-28 22:47:00,30.0,15.4,29.93,North,0,6.0,8.0,54,0.00,,,0.00,meteohub,2013-03-01 03:47:00,
2013-02-28 22:49:00,30.0,15.4,29.93,West,270,4.0,8.0,54,0.00,,,0.00,meteohub,2013-03-01 03:49:00,
2013-02-28 22:50:00,30.0,14.9,29.93,NW,315,4.0,9.0,53,0.00,,,0.00,meteohub,2013-03-01 03:50:00,
2013-02-28 22:52:00,30.0,15.4,29.93,West,270,8.0,9.0,54,0.00,,,0.00,meteohub,2013-03-01 03:52:00,
2013-02-28 22:55:00,29.8,14.7,29.92,WSW,248,6.0,9.0,53,0.00,,,0.00,meteohub,2013-03-01 03:55:00,
2013-02-28 22:59:00,29.8,15.3,29.92,South,180,8.0,9.0,54,0.00,,,0.00,meteohub,2013-03-01 03:59:00,
2013-02-28 23:00:00,29.8,14.7,29.93,West,270,7.0,9.0,53,0.00,,,0.00,meteohub,2013-03-01 04:00:00,
2013-02-28 23:01:00,29.8,14.7,29.93,West,270,7.0,9.0,53,0.00,,,0.00,meteohub,2013-03-01 04:01:00,
2013-02-28 23:04:00,29.8,15.3,29.93,North,0,3.0,9.0,54,0.00,,,0.00,meteohub,2013-03-01 04:04:00,
2013-02-28 23:06:00,29.8,15.3,29.93,WSW,248,4.0,8.0,54,0.00,,,0.00,meteohub,2013-03-01 04:06:00,
2013-02-28 23:07:00,29.8,14.7,29.93,NW,315,6.0,8.0,53,0.00,,,0.00,meteohub,2013-03-01 04:07:00,
2013-02-28 23:09:00,29.8,15.3,29.92,NW,315,11.0,11.0,54,0.00,,,0.00,meteohub,2013-03-01 04:09:00,
2013-02-28 23:12:00,29.8,15.3,29.93,NE,45,3.0,11.0,54,0.00,,,0.00,meteohub,2013-03-01 04:12:00,
2013-02-28 23:13:00,29.8,15.3,29.93,East,90,2.0,11.0,54,0.00,,,0.00,meteohub,2013-03-01 04:13:00,
2013-02-28 23:14:00,29.8,15.3,29.93,North,0,7.0,11.0,54,0.00,,,0.00,meteohub,2013-03-01 04:14:00,
2013-02-28 23:17:00,29.8,15.3,29.92,NW,315,4.0,11.0,54,0.00,,,0.00,meteohub,2013-03-01 04:17:00,
2013-02-28 23:19:00,29.8,15.3,29.93,West,270,6.0,11.0,54,0.00,,,0.00,meteohub,2013-03-01 04:19:00,
2013-02-28 23:22:00,29.8,15.3,29.92,West,270,4.0,11.0,54,0.00,,,0.00,meteohub,2013-03-01 04:22:00,
2013-02-28 23:24:00,29.7,15.1,29.93,West,270,1.0,11.0,54,0.00,,,0.00,meteohub,2013-03-01 04:24:00,
2013-02-28 23:28:00,29.8,15.3,29.93,NW,315,7.0,11.0,54,0.00,,,0.00,meteohub,2013-03-01 04:28:00,
2013-02-28 23:29:00,29.8,15.3,29.93,NW,315,3.0,11.0,54,0.00,,,0.00,meteohub,2013-03-01 04:29:00,
2013-02-28 23:30:00,29.8,15.3,29.93,NW,315,3.0,11.0,54,0.00,,,0.00,meteohub,2013-03-01 04:30:00,
2013-02-28 23:33:00,29.8,15.3,29.93,NW,315,3.0,11.0,54,0.00,,,0.00,meteohub,2013-03-01 04:33:00,
2013-02-28 23:35:00,29.8,15.3,29.93,West,270,4.0,11.0,54,0.00,,,0.00,meteohub,2013-03-01 04:35:00,
2013-02-28 23:38:00,29.8,15.3,29.93,NW,315,3.0,11.0,54,0.00,,,0.00,meteohub,2013-03-01 04:38:00,
2013-02-28 23:40:00,29.8,15.3,29.93,NW,315,8.0,11.0,54,0.00,,,0.00,meteohub,2013-03-01 04:40:00,
2013-02-28 23:44:00,29.8,15.3,29.93,West,270,4.0,11.0,54,0.00,,,0.00,meteohub,2013-03-01 04:44:00,
2013-02-28 23:45:00,29.8,15.3,29.93,West,270,6.0,9.0,54,0.00,,,0.00,meteohub,2013-03-01 04:45:00,
2013-02-28 23:46:00,29.8,15.3,29.93,West,270,6.0,9.0,54,0.00,,,0.00,meteohub,2013-03-01 04:46:00,
2013-02-28 23:49:00,29.8,15.3,29.92,NW,315,10.0,10.0,54,0.00,,,0.00,meteohub,2013-03-01 04:49:00,
2013-02-28 23:51:00,29.8,15.3,29.93,NW,315,3.0,10.0,54,0.00,,,0.00,meteohub,2013-03-01 04:51:00,
2013-02-28 23:52:00,29.8,15.3,29.92,West,270,3.0,10.0,54,0.00,,,0.00,meteohub,2013-03-01 04:52:00,
2013-02-28 23:54:00,29.8,15.3,29.93,NW,315,5.0,10.0,54,0.00,,,0.00,meteohub,2013-03-01 04:54:00,
2013-02-28 23:56:00,29.8,15.3,29.93,NW,315,2.0,10.0,54,0.00,,,0.00,meteohub,2013-03-01 04:56:00,
2013-02-28 23:57:00,29.8,15.3,29.93,NW,315,2.0,10.0,54,0.00,,,0.00,meteohub,2013-03-01 04:57:00,
2013-02-28 23:59:00,29.8,15.3,29.93,West,270,2.0,10.0,54,0.00,,,0.00,meteohub,2013-03-01 04:59:00,